GFSFLT1_sfc_thetae_000.txt.gz
Theta_e
305 295 292 290 294 297 298 299 299 297 303 303 303 310 310 312 315 316 322 328 335 349 349 346 343 343 343 338 338 337 335 333
301 297 297 294 295 297 297 298 299 300 300 306 311 311 311 313 314 312 318 328 335 346 348 345 342 342 342 339 338 337 336 334
296 297 294 295 297 298 297 296 297 301 301 303 310 313 311 309 310 308 315 326 333 344 345 344 342 341 342 340 340 337 334 334
296 298 297 297 298 299 297 297 299 301 301 302 308 309 306 312 311 314 321 323 326 337 343 345 341 341 339 338 338 336 336 336
298 298 293 297 298 297 297 296 298 303 299 301 304 304 305 305 305 307 311 313 314 313 320 327 329 331 332 332 333 333 333 334
294 293 292 298 297 297 299 298 305 306 298 297 302 304 304 305 305 304 306 307 307 312 315 316 317 327 329 329 329 330 332 332
297 293 295 295 294 299 303 302 303 304 303 304 305 305 304 303 305 306 310 310 310 314 315 316 317 319 323 325 328 328 326 327
301 297 296 296 297 300 301 301 300 301 304 305 305 303 303 303 304 305 308 311 312 313 314 315 318 316 315 318 319 320 321 319
303 300 299 298 296 300 300 297 300 299 302 303 303 303 304 304 305 306 309 312 311 312 314 314 314 315 314 316 320 322 321 319
303 303 298 298 300 301 300 301 305 303 304 303 303 303 304 305 306 309 309 311 312 313 313 313 314 314 314 318 321 321 319 320
302 299 300 301 299 300 301 304 305 303 304 303 302 304 305 307 310 310 309 311 311 314 314 314 314 315 315 318 320 320 317 317
299 297 298 299 298 300 302 305 303 302 302 302 304 304 305 308 309 310 311 311 312 313 315 314 313 314 315 316 316 319 316 316
299 298 297 299 296 298 302 303 301 301 301 303 304 305 307 309 309 310 310 312 311 315 315 314 313 314 315 316 316 316 317 318
297 299 300 298 292 299 302 301 299 300 301 302 303 305 308 312 310 311 310 312 311 315 316 315 314 315 316 318 318 318 318 318
296 299 298 296 294 299 301 301 299 299 300 302 302 305 308 313 311 311 311 312 312 312 315 315 315 316 318 318 319 320 321 321
294 297 296 294 294 297 301 301 300 299 300 301 302 305 309 312 313 312 312 311 312 311 314 314 316 317 318 318 319 320 320 322
297 299 296 295 295 299 299 299 298 298 299 300 302 305 309 311 313 313 314 312 311 310 311 311 314 314 315 316 318 318 321 323
296 298 295 295 295 296 298 299 299 298 298 300 301 304 308 310 311 311 311 313 312 311 312 312 313 314 315 316 320 320 322 323
293 296 295 292 291 293 297 299 300 298 299 300 301 302 305 307 307 310 309 310 314 312 310 309 313 316 317 319 321 322 322 322
295 292 287 293 283 291 294 296 299 297 297 299 300 303 305 306 304 309 310 312 312 312 311 312 312 317 316 316 317 320 322 323

GFSFLT1_sfc_thetae_003.txt.gz
Theta_e
317 310 304 303 304 305 306 307 307 306 309 308 307 313 316 322 325 327 330 335 340 347 353 351 350 348 345 343 341 340 339 338
312 306 308 308 311 305 306 305 306 307 305 312 316 316 319 321 321 322 323 330 337 343 349 351 347 345 345 343 342 341 339 338
308 307 308 305 305 306 306 305 305 307 306 309 315 318 318 318 318 320 322 333 337 341 347 347 346 345 343 342 341 340 337 339
305 307 309 307 306 306 306 307 306 306 307 310 316 316 316 320 322 323 323 335 338 339 343 344 343 344 341 338 336 337 337 336
306 307 306 307 306 305 306 305 305 310 306 310 313 313 315 315 317 320 322 323 328 329 328 327 329 331 331 332 333 333 333 334
306 305 306 307 305 305 306 306 310 312 306 307 312 312 314 315 316 316 317 318 321 322 324 327 327 327 328 329 330 330 331 331
305 305 307 305 304 306 308 307 308 310 309 310 311 312 313 314 315 318 319 321 323 323 325 325 325 325 326 327 328 328 328 328
311 310 308 306 306 307 306 306 306 307 308 309 310 311 312 312 314 316 319 321 323 323 323 325 324 326 327 326 326 326 327 327
309 311 309 306 304 307 306 304 308 308 308 309 310 312 312 312 314 317 320 322 322 323 323 325 324 326 326 325 322 323 324 326
310 309 305 304 306 304 307 309 310 311 311 310 310 311 311 312 316 319 320 321 322 322 324 326 325 326 327 324 325 325 324 327
308 305 305 305 304 305 306 309 310 309 309 309 311 312 313 316 319 320 320 321 322 323 325 326 327 326 327 327 325 326 324 326
304 304 304 304 303 305 307 310 308 308 308 309 310 311 314 316 319 320 321 322 323 325 326 327 326 327 328 328 327 324 323 327
304 304 304 305 302 303 309 309 308 308 308 309 311 312 314 318 319 321 322 323 323 325 328 327 327 327 328 329 328 327 328 329
303 303 303 304 299 308 308 308 307 306 306 308 310 312 315 319 320 322 323 323 324 325 328 328 328 328 328 330 329 329 330 331
301 304 302 302 300 307 306 307 307 306 306 307 309 312 317 320 320 322 323 323 323 325 327 328 329 329 329 331 330 330 331 331
299 303 302 301 300 306 307 306 306 306 306 307 309 312 317 321 321 323 324 323 323 324 325 325 327 329 329 332 330 331 331 330
302 305 302 302 303 305 307 305 305 306 306 308 309 314 318 321 321 322 325 325 324 325 326 325 326 325 326 326 326 330 329 325
302 303 302 303 302 305 306 306 307 307 306 308 310 312 316 319 321 322 322 323 326 323 324 322 324 327 323 327 328 328 328 329
300 301 302 300 299 302 307 305 306 308 309 309 309 311 315 317 320 321 320 320 324 325 324 323 325 328 329 330 328 326 326 325
300 299 295 300 292 300 304 305 305 307 307 308 309 312 315 317 318 321 321 321 321 323 325 323 327 330 329 327 324 326 327 329

GFSFLT1_sfc_thetae_006.txt.gz
Theta_e
320 313 307 309 312 313 313 313 313 311 313 311 310 316 319 325 329 329 329 330 333 348 354 354 353 348 349 348 346 344 341 341
313 309 312 311 314 315 312 312 314 313 309 314 319 319 322 325 326 325 325 326 334 338 345 350 351 348 349 345 344 342 340 341
311 310 312 315 316 314 312 313 312 311 309 312 319 323 324 323 323 323 324 327 329 340 343 347 348 346 346 343 343 339 338 338
307 310 313 316 316 313 312 313 311 309 310 313 321 322 322 323 325 326 325 331 332 337 341 339 341 340 337 336 336 336 336 336
310 310 311 312 315 312 312 311 311 313 308 315 318 321 323 322 323 324 326 325 327 329 330 332 328 328 330 330 331 333 333 333
311 309 309 314 312 313 311 311 314 315 308 311 320 321 322 321 321 321 322 322 325 328 327 330 331 329 329 330 330 330 331 332
309 310 312 317 313 314 314 312 312 314 314 316 319 320 319 319 319 322 322 323 326 326 329 331 330 329 329 330 329 329 329 329
313 315 314 316 315 315 310 311 311 312 315 315 317 318 317 317 318 319 320 322 323 329 330 330 329 332 333 331 328 327 328 328
313 316 316 314 314 315 311 310 313 312 315 315 316 318 317 317 318 318 322 322 322 329 331 331 330 331 330 329 329 329 328 330
315 316 313 312 314 311 311 313 315 315 316 317 316 317 317 317 318 320 320 321 326 329 331 333 332 330 329 329 330 328 331 329
316 314 313 312 311 310 312 315 315 315 316 316 317 318 318 319 321 322 319 326 329 330 333 333 332 331 330 330 330 330 330 330
314 313 311 309 310 309 313 314 314 314 315 316 316 317 318 320 321 321 320 327 328 331 334 334 333 333 332 332 332 331 330 330
311 311 310 310 307 307 314 314 312 313 315 315 316 317 318 320 321 321 323 328 328 330 333 334 334 333 333 332 332 331 330 332
311 310 309 308 302 309 314 312 312 313 314 314 316 317 318 321 322 323 325 324 328 330 332 334 335 334 333 335 334 334 334 333
307 312 309 308 306 311 314 313 312 314 314 314 315 317 320 323 323 322 323 324 327 330 332 333 334 334 335 336 334 336 335 335
304 309 308 307 307 310 312 312 312 314 314 314 314 316 320 323 323 322 323 325 327 331 333 333 333 333 335 336 337 336 331 327
307 310 307 308 308 309 312 312 313 314 314 314 315 318 321 323 323 322 322 324 328 328 332 329 330 330 332 331 329 334 331 328
308 309 307 307 306 309 311 311 313 314 315 315 316 317 320 323 323 322 319 322 328 328 329 328 331 334 333 331 331 326 327 327
304 308 308 306 304 307 310 312 314 315 316 316 316 316 319 321 322 322 320 321 324 327 329 331 336 338 336 335 332 333 329 329
305 303 298 306 296 304 308 309 311 314 315 316 316 317 319 321 321 321 321 324 324 327 331 332 336 332 333 332 328 330 334 334

GFSFLT1_sfc_thetae_009.txt.gz
Theta_e
321 315 310 309 314 315 317 317 316 314 316 314 314 317 317 328 330 330 330 332 337 354 355 353 353 353 353 350 348 346 344 344
313 310 314 313 315 317 316 316 317 316 311 317 322 320 322 327 327 326 326 327 340 343 342 346 351 351 350 347 346 342 340 342
312 313 315 317 318 317 314 315 314 315 312 314 322 325 325 325 325 324 325 327 329 342 341 343 346 346 344 342 341 340 340 339
309 310 315 318 318 316 315 315 315 313 313 315 325 324 325 325 325 326 326 329 330 339 341 340 336 334 334 335 335 335 336 336
312 311 312 315 319 315 314 314 314 316 311 317 320 323 326 325 326 326 327 326 328 329 335 335 335 331 328 330 331 332 333 333
312 310 311 317 317 319 315 314 318 317 310 312 322 325 325 324 323 324 325 325 327 328 326 329 331 334 329 330 331 331 332 332
310 310 313 318 316 319 319 316 316 316 316 319 323 323 322 322 321 322 324 325 327 325 329 332 332 333 330 334 333 332 331 331
314 315 314 316 316 317 316 315 314 315 318 319 320 321 319 320 320 321 322 324 324 326 332 334 331 333 333 332 333 332 331 331
314 315 316 315 315 318 315 312 316 313 316 319 319 320 320 319 320 321 324 325 324 330 334 334 332 331 331 332 331 331 330 331
314 315 316 314 317 314 315 315 317 317 316 318 318 319 319 319 320 321 323 323 328 332 334 336 334 331 331 331 332 330 331 334
315 316 317 317 314 314 314 317 317 317 317 317 318 319 321 321 322 324 323 324 330 334 336 336 335 333 333 332 330 332 331 332
316 315 316 313 314 313 315 316 314 316 317 316 316 319 322 322 323 324 322 327 331 333 335 335 334 336 334 336 333 333 331 330
314 314 314 315 310 311 315 317 315 314 315 317 319 320 320 323 324 324 323 329 330 332 332 334 336 335 336 337 338 334 334 334
313 314 314 312 305 314 317 316 315 315 316 317 319 320 321 323 326 325 325 325 329 330 331 334 335 335 335 337 337 337 333 332
308 315 313 311 307 314 317 316 315 315 316 317 318 320 322 324 326 325 325 326 327 331 331 334 336 335 337 338 339 338 334 332
306 312 313 310 309 314 316 315 315 316 317 318 317 319 322 325 327 325 325 329 328 331 334 334 334 334 338 337 337 338 332 328
310 312 310 310 310 312 316 315 314 315 316 318 319 321 323 325 326 325 325 329 329 328 333 332 331 331 337 337 332 334 335 330
310 312 311 310 309 312 313 313 315 315 316 317 319 319 321 325 326 325 325 327 328 328 331 333 335 335 334 335 334 331 334 334
306 310 312 309 306 308 313 314 315 315 317 319 320 319 321 323 325 325 323 327 328 328 332 336 338 338 337 337 336 335 334 332
307 306 301 309 298 306 310 310 312 314 316 318 320 321 322 323 324 324 323 328 329 330 333 335 337 334 334 334 332 337 335 336

GFSFLT1_sfc_thetae_012.txt.gz
Theta_e
318 314 309 308 315 314 316 317 315 314 317 314 313 317 317 328 330 329 335 337 349 354 354 355 354 354 354 352 350 348 346 345
313 309 313 314 316 317 315 316 317 316 311 317 321 319 322 326 326 325 326 336 350 354 353 351 350 351 351 349 348 346 343 342
312 311 314 318 319 317 313 314 315 315 311 314 320 323 324 325 325 325 330 332 337 346 343 344 344 345 344 341 340 340 340 340
307 310 315 318 319 316 314 315 315 313 312 316 323 322 323 324 326 326 329 335 338 343 344 343 344 343 339 334 333 334 335 335
310 309 312 315 321 316 315 313 313 316 310 318 321 323 326 326 328 330 330 331 333 334 340 343 342 337 333 331 330 331 332 333
310 309 310 317 318 320 317 314 319 318 310 312 321 325 325 324 324 324 325 325 332 335 332 336 336 337 334 332 333 332 333 333
309 309 311 316 315 320 321 317 317 318 316 319 323 323 321 322 321 321 324 330 332 327 333 335 335 335 336 335 334 334 334 332
315 315 312 314 314 316 315 315 316 316 318 320 321 320 318 319 319 322 325 327 329 332 335 337 332 337 337 336 336 336 333 333
315 317 316 313 313 316 314 312 315 314 316 318 318 320 319 318 322 322 327 328 328 335 339 338 335 335 333 334 335 335 334 334
316 317 314 312 315 314 314 314 318 317 318 318 319 318 317 319 327 323 327 330 333 338 338 342 338 333 333 334 334 332 333 335
317 316 315 315 313 314 314 318 318 317 317 317 319 320 325 327 328 327 329 328 334 337 341 343 341 337 337 336 332 334 333 331
315 315 315 312 313 314 315 318 316 316 315 317 318 320 323 325 327 329 329 332 335 338 341 341 338 339 337 337 334 334 333 328
313 314 312 315 310 311 316 317 316 316 317 317 319 319 320 325 329 331 330 335 336 336 338 340 339 338 337 336 337 334 336 332
311 313 314 313 304 313 317 316 315 316 316 317 319 320 323 326 330 333 332 334 336 331 335 340 340 339 338 339 338 337 337 333
307 314 313 311 307 313 316 316 316 317 317 317 319 323 327 326 329 332 333 335 334 337 336 339 339 333 339 339 339 338 338 332
305 311 312 309 309 313 315 315 317 317 318 318 319 321 324 326 329 331 332 335 337 337 339 339 337 339 340 339 337 339 335 330
309 312 310 309 311 312 315 315 315 317 318 320 321 323 325 326 329 329 332 334 337 337 340 338 336 335 336 337 336 337 337 333
308 311 310 309 308 312 314 315 315 315 317 319 321 321 323 326 328 329 330 333 336 337 339 340 338 338 338 336 336 335 336 334
305 309 310 308 306 309 313 315 316 317 319 321 321 320 322 324 327 328 329 331 334 336 340 341 341 340 338 337 335 332 333 330
307 304 299 308 298 307 310 311 313 314 317 318 321 322 322 324 326 328 327 331 334 337 340 340 340 337 335 332 330 332 328 333

GFSFLT1_sfc_thetae_015.txt.gz
Theta_e
311 306 302 306 312 314 312 311 310 309 312 312 309 315 319 321 323 335 339 340 344 354 354 355 354 353 353 353 351 348 346 345
305 302 309 309 312 315 310 311 312 311 308 314 318 317 321 324 324 322 327 341 350 353 354 355 353 353 353 351 349 347 344 344
303 306 311 312 316 316 308 309 309 310 309 309 317 321 321 321 320 320 330 340 347 353 352 350 347 347 348 344 342 340 340 340
300 305 311 313 314 315 311 311 308 309 310 310 317 318 318 320 318 321 327 331 336 347 347 347 348 348 346 342 338 336 336 335
304 305 307 312 316 314 314 310 308 311 307 311 314 317 318 318 319 319 323 328 330 334 340 348 347 346 342 337 334 334 333 333
305 304 305 312 316 316 313 311 316 315 307 307 314 318 318 317 317 316 318 318 320 328 331 331 333 342 338 335 335 335 334 334
304 305 307 312 308 313 316 313 314 314 312 317 319 318 315 313 312 313 317 315 316 319 322 325 326 331 338 338 337 336 335 335
311 311 309 310 308 310 312 312 313 314 316 319 319 315 313 311 311 312 316 318 319 322 324 326 330 327 328 328 329 328 327 325
312 313 313 312 308 311 310 307 312 310 312 315 315 313 311 311 311 314 316 318 320 322 326 325 325 326 325 325 325 325 325 325
313 315 313 309 311 310 311 310 315 314 315 313 312 311 311 311 313 315 315 319 324 326 325 326 327 325 324 325 324 323 325 326
316 315 311 312 310 311 310 315 317 314 314 312 311 312 312 313 317 316 315 319 323 324 325 328 327 325 325 325 325 325 325 325
314 313 310 309 311 311 311 316 312 312 310 310 310 313 313 315 315 316 315 320 322 324 326 326 325 324 326 327 327 326 325 326
311 311 308 312 307 307 312 313 312 310 310 311 312 315 314 315 316 316 315 321 322 322 324 324 324 326 327 327 328 327 326 327
306 309 310 308 301 309 312 311 311 312 312 312 312 312 314 318 318 316 318 320 322 326 322 325 325 326 327 327 327 327 327 326
302 309 309 307 303 310 312 311 310 311 311 312 312 312 318 321 320 317 318 319 321 323 323 325 324 326 326 328 327 327 327 324
300 306 307 306 306 309 311 310 309 310 311 313 312 314 319 321 321 318 320 321 322 322 323 324 324 326 326 327 327 327 326 324
304 308 306 306 307 308 310 310 308 309 310 312 313 315 319 321 321 319 319 321 322 322 321 322 324 323 323 322 325 327 328 327
303 307 307 306 305 307 310 308 309 309 309 309 313 314 317 319 318 317 317 319 323 321 322 324 325 326 326 326 327 326 326 328
299 305 306 303 299 303 309 309 310 311 310 312 313 313 316 318 316 317 317 319 321 322 324 326 326 326 325 325 325 324 324 326
302 301 294 303 290 299 303 305 308 309 308 311 313 315 316 318 316 316 318 319 322 324 325 328 326 324 322 320 319 323 325 326

GFSFLT1_sfc_thetae_021.txt.gz
Theta_e
309 302 299 300 308 310 313 314 306 303 308 307 307 316 317 321 333 330 334 340 343 353 353 353 352 352 351 348 347 346 346 346
305 301 304 307 311 312 312 313 308 307 306 309 315 316 317 329 332 330 331 337 344 353 353 354 353 353 352 349 347 347 347 347
300 303 306 309 311 309 309 306 305 307 306 306 313 320 321 334 333 328 331 336 342 353 354 354 354 352 351 350 350 349 347 346
296 301 306 308 310 309 309 308 306 306 305 306 313 317 320 332 330 331 333 335 341 352 353 353 353 352 352 351 351 350 347 345
300 303 304 307 308 307 308 308 306 309 304 307 311 316 316 321 326 330 333 337 341 346 350 353 353 352 352 352 350 347 344 342
301 301 302 308 309 306 307 310 311 313 306 304 310 314 313 321 323 327 331 335 334 335 339 339 341 350 350 349 346 344 340 337
301 302 304 308 306 311 312 309 309 310 311 313 314 313 312 311 312 314 321 321 324 327 331 332 333 337 345 343 341 339 336 336
308 308 306 309 307 309 308 309 307 310 314 315 314 312 311 310 311 310 313 314 321 323 324 324 327 324 326 329 329 328 329 327
309 312 311 309 310 314 307 306 308 308 310 312 311 311 311 312 312 312 312 313 317 319 319 320 323 322 322 323 321 322 325 325
312 314 313 310 313 311 312 311 315 312 313 312 310 310 311 311 309 308 312 315 318 319 320 320 321 321 320 321 321 321 323 323
312 313 313 314 310 311 312 315 316 311 313 312 311 310 312 312 310 310 312 315 317 320 320 321 322 321 320 320 322 321 321 321
309 311 312 309 308 308 310 313 311 310 311 311 311 311 309 307 310 310 314 316 320 320 321 322 321 320 320 320 321 322 322 322
302 305 305 307 302 304 310 310 309 307 309 311 311 311 310 311 311 313 317 320 320 320 322 322 320 320 319 321 323 322 323 323
301 304 306 303 297 306 310 307 307 308 307 309 310 311 312 310 312 313 318 318 319 324 321 319 320 320 322 322 322 322 323 324
296 303 302 301 298 305 308 307 306 308 308 306 309 308 309 313 312 316 318 317 319 319 319 320 319 319 320 321 322 323 323 323
294 300 300 298 298 304 307 306 307 307 307 307 307 307 309 312 313 316 317 318 318 318 320 319 318 320 320 320 322 323 323 323
297 301 299 298 299 302 305 304 305 306 305 306 307 308 312 313 316 317 317 317 316 318 318 317 319 318 319 319 320 321 322 323
298 301 298 298 298 302 304 304 305 306 306 306 309 311 312 313 316 318 316 316 317 317 318 319 320 319 320 320 320 321 321 322
294 299 300 298 297 299 304 305 306 307 306 307 309 310 311 313 315 315 315 317 317 317 319 322 321 320 319 318 319 319 319 320
296 294 288 298 287 295 299 302 303 304 303 305 308 311 312 312 311 314 315 318 317 319 321 321 321 319 316 315 314 316 317 318

GFSFLT1_sfc_thetae_024.txt.gz
Theta_e
308 302 298 299 307 308 312 313 306 302 306 305 305 314 318 325 332 329 329 337 343 354 353 352 352 351 350 349 348 344 343 343
305 301 305 305 309 309 309 312 306 305 304 308 313 315 320 324 331 330 331 337 344 353 353 353 353 352 351 349 348 346 345 345
302 303 306 308 310 308 307 307 304 305 305 305 311 318 320 330 330 329 330 335 341 352 353 353 353 352 352 351 350 349 346 346
297 301 305 307 309 308 307 307 304 304 304 305 311 316 322 330 327 328 329 333 338 351 353 353 353 353 352 351 350 350 348 349
299 302 304 306 308 305 305 306 306 306 303 306 309 315 325 329 328 328 330 333 336 344 350 353 353 352 352 351 351 351 351 349
301 301 300 307 306 306 306 308 311 311 304 304 309 314 318 323 324 327 329 332 334 339 345 343 346 353 352 352 351 351 347 344
300 301 303 305 304 308 310 309 308 310 309 311 313 312 316 315 317 320 325 329 331 334 337 337 338 343 351 348 346 345 342 341
306 305 304 305 306 309 308 309 310 309 311 314 312 310 313 314 316 316 320 320 326 328 331 331 334 331 332 333 331 331 331 329
307 309 308 308 309 311 308 306 311 309 314 311 310 309 311 313 315 318 319 318 321 324 325 325 323 322 322 324 325 325 327 327
309 310 308 309 311 310 312 311 315 315 315 311 309 309 310 311 313 310 311 315 317 320 320 320 321 321 322 322 322 321 323 325
310 309 310 312 310 310 311 316 316 314 311 310 309 310 311 312 312 309 309 312 316 318 318 319 320 321 320 320 322 322 322 323
305 307 308 308 307 307 310 314 311 310 309 309 309 310 309 309 309 308 310 313 316 318 319 320 321 321 320 320 321 322 322 322
300 301 301 305 299 301 308 309 307 308 309 308 310 310 309 311 311 310 311 315 318 318 320 321 321 321 320 320 322 322 323 324
298 302 302 301 294 303 307 306 306 307 307 307 309 310 311 313 309 311 315 317 318 323 321 321 320 320 320 321 322 322 323 324
293 300 300 299 295 303 305 305 305 306 307 308 307 308 312 310 310 316 317 317 319 321 320 320 319 319 320 322 322 323 324 324
291 297 296 295 295 301 304 303 303 304 306 306 307 307 308 310 313 317 318 319 319 319 319 319 319 319 320 321 322 323 324 324
295 300 297 295 296 300 303 302 301 303 305 306 305 307 309 311 315 317 318 318 317 318 318 317 318 319 319 320 321 322 323 325
297 300 297 296 296 299 302 302 302 304 305 305 306 309 309 310 314 317 318 317 317 318 317 318 320 319 321 321 321 322 323 324
294 296 296 294 293 296 301 303 303 305 306 305 306 308 308 311 313 315 315 316 316 317 318 321 321 320 320 319 319 320 321 322
296 292 286 294 285 294 298 300 302 304 302 303 306 309 309 311 312 315 315 317 317 318 320 321 321 319 317 316 315 318 319 320

GFSFLT1_sfc_thetae_027.txt.gz
Theta_e
318 314 308 309 314 316 319 319 316 312 312 311 313 319 323 334 337 334 336 343 348 354 353 352 352 352 351 350 348 345 342 342
312 309 313 313 317 318 317 318 315 313 311 315 319 320 325 335 338 333 335 341 347 353 353 353 352 352 351 350 349 347 345 345
310 310 314 316 318 318 316 315 316 312 311 314 318 323 328 334 338 335 335 339 344 353 354 353 353 352 352 351 350 349 348 346
305 308 312 315 318 316 315 315 315 311 311 315 319 322 327 334 338 338 337 340 344 351 354 353 353 353 352 351 351 350 349 349
306 305 308 312 317 314 313 313 313 313 311 317 319 322 328 334 339 338 340 340 345 347 352 353 353 352 352 352 351 351 350 350
307 304 305 313 314 315 315 314 316 316 312 316 322 322 330 335 335 335 338 340 343 347 348 348 349 353 353 352 352 351 350 350
304 305 308 314 313 315 317 317 317 318 319 321 321 321 327 331 331 332 334 338 340 341 346 347 347 348 353 351 351 351 348 347
311 311 310 312 313 314 314 315 316 318 321 320 320 320 322 326 326 330 332 335 338 341 344 346 345 348 348 346 344 345 343 342
312 313 313 313 313 316 313 311 315 315 319 323 323 321 320 322 325 327 331 334 336 341 344 345 343 344 342 341 341 340 342 342
314 315 314 312 315 313 315 315 319 320 322 322 321 321 320 321 324 326 328 332 335 340 342 344 341 338 336 334 335 335 337 339
316 316 315 315 312 312 312 317 319 320 320 319 319 321 322 322 324 325 326 328 331 337 340 339 337 334 334 334 333 335 335 336
313 313 313 310 309 310 311 316 315 315 315 316 318 320 322 322 322 324 326 325 330 334 337 335 334 336 335 336 335 334 334 334
306 308 306 306 302 303 309 312 311 312 314 316 319 320 319 323 325 326 325 325 328 332 334 334 334 335 336 334 334 333 334 336
304 304 305 304 298 306 311 310 310 312 314 315 318 319 321 323 326 326 324 324 328 328 331 333 335 335 334 334 334 334 335 336
298 303 303 304 300 306 310 309 309 311 313 314 316 320 324 323 324 323 324 327 327 330 330 333 335 334 335 335 334 335 335 336
296 301 301 300 300 305 308 309 309 311 313 314 315 318 322 322 321 324 325 329 330 331 333 334 333 333 334 334 334 335 335 336
299 302 300 301 302 305 308 309 309 310 312 314 316 320 317 318 321 324 326 328 330 331 333 332 330 330 331 331 334 334 335 336
299 301 301 302 301 305 307 307 309 310 312 314 317 317 317 317 321 324 325 327 329 332 332 332 332 333 335 336 335 334 335 335
296 300 302 301 299 302 306 308 309 311 314 315 316 317 317 317 321 324 325 327 330 331 332 332 335 334 334 334 332 332 333 333
297 295 293 300 292 300 303 304 307 310 313 315 315 316 318 318 321 323 325 329 331 331 332 334 335 334 333 329 328 331 331 332

GFSFLT1_sfc_thetae_030.txt.gz
Theta_e
321 317 311 313 319 319 320 321 320 319 319 317 317 322 325 337 342 342 339 343 347 354 352 353 352 352 351 350 348 345 344 343
315 311 315 318 320 321 320 321 320 319 317 320 324 324 328 338 342 340 339 341 348 354 353 353 353 353 352 351 349 347 344 344
311 312 316 320 322 321 319 319 319 318 317 319 324 327 329 337 340 337 339 340 346 354 354 354 353 353 353 352 351 350 347 346
308 311 316 319 320 319 319 320 319 316 317 319 326 327 329 335 340 338 338 342 347 353 354 353 354 353 352 352 351 350 350 349
310 310 312 316 320 318 318 318 318 321 316 322 326 329 330 333 339 340 340 341 347 351 354 354 353 353 352 351 351 351 351 350
311 309 310 316 318 319 318 317 323 321 317 319 328 330 331 333 334 339 340 340 342 349 348 350 350 354 353 353 352 352 352 351
309 310 312 318 316 320 322 319 321 322 322 325 328 329 330 331 332 333 335 340 341 343 346 348 347 348 353 352 352 352 350 349
315 316 315 317 316 317 317 318 318 320 324 326 328 329 328 328 328 331 332 336 339 344 346 347 343 347 352 347 347 346 345 346
316 318 318 316 317 319 316 315 319 318 321 324 325 326 327 328 329 329 332 335 337 345 347 347 344 345 346 345 344 344 346 346
318 319 318 316 319 317 318 318 322 322 322 322 323 324 324 325 329 330 330 334 338 342 347 349 344 344 344 341 341 340 339 343
318 318 318 319 316 317 317 320 322 320 320 320 321 322 323 325 328 332 330 333 338 342 347 349 349 344 342 339 336 338 337 340
316 317 318 315 315 316 317 318 318 317 318 319 318 320 323 325 329 332 333 334 338 341 347 348 349 347 341 340 338 337 336 338
312 314 313 316 310 310 315 316 315 316 317 318 319 321 323 327 330 332 334 336 337 340 345 347 346 343 340 338 338 335 336 341
310 311 312 311 303 312 316 315 314 315 317 317 318 321 324 326 330 334 335 335 337 336 342 345 344 341 338 337 337 336 338 340
306 312 309 308 305 312 315 314 314 316 317 317 317 321 326 328 331 333 335 336 334 337 339 342 342 340 340 341 337 337 339 339
305 310 307 306 305 311 313 313 314 316 316 316 317 320 325 329 330 331 333 335 335 336 339 341 339 339 337 336 336 338 338 339
306 310 307 306 307 310 314 314 314 316 316 317 318 324 326 328 328 329 332 333 335 336 340 337 335 333 332 331 334 337 338 340
307 309 308 305 306 311 313 314 315 315 316 317 319 323 325 326 328 330 332 334 335 337 339 338 335 336 334 334 336 337 339 339
302 306 307 305 302 306 312 314 316 316 316 317 317 322 325 325 328 330 331 334 335 338 339 339 339 337 338 338 337 334 335 336
301 299 295 304 296 305 310 311 313 314 316 316 320 323 325 326 328 330 331 334 336 338 339 338 339 337 336 331 329 335 333 338

GFSFLT1_sfc_thetae_033.txt.gz
Theta_e
317 314 310 310 318 320 322 323 322 321 323 321 320 325 327 338 341 338 339 350 348 353 352 353 353 352 351 350 348 345 344 344
316 313 316 317 320 322 320 323 323 322 318 323 328 326 330 336 339 337 337 343 353 353 353 353 354 353 352 351 349 347 345 345
311 311 315 320 322 323 319 320 320 321 317 320 328 330 331 336 338 336 337 340 350 354 354 353 354 353 353 352 351 350 348 346
308 311 316 319 321 321 319 319 321 319 319 321 329 330 331 334 338 338 337 340 345 355 353 353 353 353 353 352 352 351 350 349
311 310 313 317 322 318 318 319 319 322 317 323 327 332 333 335 336 340 338 339 341 354 354 354 353 353 352 352 352 351 351 350
312 309 310 318 319 321 319 318 326 325 317 319 328 332 333 334 335 336 339 338 340 347 353 352 349 354 353 353 352 352 351 351
310 311 313 319 317 322 323 320 321 323 323 326 330 331 331 331 332 334 335 339 340 339 345 349 346 348 353 352 351 351 350 349
317 317 315 319 318 319 319 318 319 321 325 326 328 328 327 327 327 329 332 336 339 341 345 346 343 350 352 347 346 345 345 345
318 319 320 318 319 321 318 316 320 320 323 325 325 326 325 326 327 327 330 333 337 351 353 348 344 344 348 347 345 347 347 352
319 321 319 317 319 319 319 320 324 324 325 324 323 323 324 325 325 326 327 333 336 343 353 355 346 342 345 345 346 343 344 350
319 320 319 320 318 318 319 323 325 324 323 323 322 323 325 325 325 326 327 330 335 345 353 355 357 346 347 348 342 344 341 343
317 317 318 316 317 319 320 324 323 322 322 321 321 323 324 325 325 328 333 334 337 346 356 352 353 358 352 352 343 339 338 339
315 316 315 317 312 314 320 322 320 320 320 321 321 323 324 325 330 330 335 339 340 350 354 356 354 354 351 344 341 338 338 342
313 315 315 314 307 315 320 319 318 318 319 319 322 324 325 325 328 337 341 341 342 337 345 352 355 352 346 341 340 337 338 339
308 315 314 312 309 314 317 317 317 318 318 319 321 323 327 325 329 336 340 340 340 344 342 348 353 348 347 350 340 338 338 338
305 311 312 310 310 314 316 315 315 318 318 318 320 322 326 327 329 335 337 341 343 342 348 351 347 347 340 338 339 337 337 338
308 312 309 309 310 314 315 314 315 316 317 319 321 324 326 329 333 333 336 340 341 340 349 346 340 336 336 334 336 335 338 340
308 312 310 310 308 312 314 314 315 316 318 320 321 323 323 331 333 333 336 338 339 339 344 344 340 342 337 337 334 337 338 341
304 309 310 309 306 309 313 315 315 316 318 320 321 321 322 330 332 334 335 337 338 340 342 345 346 342 340 339 339 335 335 336
304 303 299 308 298 305 309 310 313 316 318 320 320 322 322 331 333 334 335 337 340 341 341 341 343 343 343 333 330 333 336 334

GFSFLT1_sfc_thetae_036.txt.gz
Theta_e
312 310 305 307 317 319 322 324 321 319 324 320 319 325 329 338 340 341 350 348 345 352 352 352 352 351 350 350 349 347 345 345
310 309 314 316 320 321 321 323 323 321 317 323 328 327 330 335 337 336 343 348 351 352 352 353 353 352 351 350 350 349 347 347
307 308 313 316 320 321 320 320 320 321 316 320 326 330 331 336 337 335 336 345 352 352 353 353 353 353 352 351 350 349 349 348
305 309 314 317 321 320 319 319 319 318 319 320 329 330 331 333 338 336 338 343 353 353 352 353 353 353 352 351 350 350 350 349
307 309 312 316 322 319 318 318 318 323 317 322 327 331 335 337 339 340 340 341 354 352 352 353 353 352 352 351 351 351 350 350
309 309 310 316 318 321 319 317 324 324 317 318 329 333 333 333 333 336 338 337 352 353 350 350 350 353 353 352 352 352 352 351
307 309 312 318 316 320 323 319 321 322 321 324 327 328 328 329 329 330 332 338 341 351 352 350 347 350 354 353 352 352 352 351
313 315 314 317 317 318 318 318 318 320 324 326 327 326 326 326 325 326 327 330 337 340 348 350 345 346 350 349 348 348 345 345
315 318 318 317 317 321 318 315 319 319 322 324 325 327 325 324 324 326 329 329 335 342 346 347 343 344 350 348 346 344 344 345
317 319 318 316 319 317 318 319 323 324 325 325 325 325 324 323 324 324 327 334 334 344 349 346 345 345 349 348 345 343 344 348
317 318 317 319 316 316 317 322 324 324 325 325 324 325 326 326 327 330 331 335 337 346 346 350 351 345 346 347 346 345 347 348
315 315 316 313 314 316 318 322 322 323 323 324 325 324 324 328 331 335 336 339 342 348 349 350 346 353 350 352 350 348 346 346
314 314 314 317 312 313 319 320 319 321 322 323 324 323 323 329 336 338 337 345 348 350 352 351 352 350 359 352 351 346 344 348
311 314 315 314 306 315 319 318 317 319 320 322 323 323 329 327 337 339 342 345 349 338 352 352 353 352 350 351 348 348 344 346
305 312 312 312 308 315 319 318 317 318 318 320 321 325 331 333 333 337 345 347 347 348 350 351 354 353 352 353 344 344 346 344
303 309 311 309 309 314 317 317 317 318 318 318 319 323 329 333 333 346 342 346 353 350 351 351 351 353 349 346 345 346 344 343
306 310 309 308 309 311 316 317 316 317 318 318 320 324 328 332 343 340 343 346 350 349 351 349 347 343 341 338 341 341 343 344
306 308 308 307 308 312 315 315 316 317 317 318 320 324 328 333 339 340 342 345 346 346 351 348 346 344 341 340 338 339 341 344
300 305 307 306 304 309 313 316 317 318 319 320 320 319 321 331 337 338 339 341 342 345 347 346 346 345 349 345 346 342 340 340
301 299 296 305 295 306 310 312 315 316 318 318 320 322 324 330 335 337 337 340 341 345 344 345 348 345 344 339 335 338 340 338

GFSFLT1_sfc_thetae_042.txt.gz
Theta_e
305 300 295 298 308 313 318 321 320 318 321 317 319 328 326 332 338 336 336 339 341 352 352 352 352 351 349 348 347 345 343 342
300 300 305 307 311 314 317 319 322 320 315 317 324 327 329 340 338 333 334 338 346 352 352 352 352 351 349 349 348 347 345 345
297 301 307 310 313 315 315 317 319 319 314 314 324 330 341 340 338 332 333 334 342 352 352 352 352 351 350 350 348 348 348 347
295 301 307 309 312 315 317 318 318 317 315 315 322 330 339 341 338 336 333 332 338 350 351 351 352 351 350 349 349 349 348 348
299 301 304 309 313 312 315 317 314 316 313 315 319 324 335 340 340 339 336 332 336 341 347 352 351 351 350 349 348 348 348 348
299 300 301 310 311 311 313 314 319 319 311 310 319 323 325 329 332 338 338 334 337 338 341 344 345 352 351 349 349 348 349 349
298 301 304 310 310 315 318 316 317 318 317 319 325 325 320 318 319 321 334 335 338 338 337 340 342 346 350 351 350 349 348 349
306 307 305 309 309 312 313 313 314 316 321 322 322 320 319 317 316 316 328 336 338 339 338 338 340 341 344 344 343 343 343 342
313 312 311 310 311 314 312 310 314 314 317 319 319 318 317 317 316 314 315 334 339 339 339 338 337 339 343 342 341 342 341 340
313 315 313 311 314 312 312 313 317 317 319 319 318 316 317 316 316 315 314 326 339 339 339 338 338 338 340 340 340 340 341 340
311 311 313 314 312 311 312 317 319 317 316 315 316 316 316 317 316 315 313 315 336 339 338 339 337 338 339 339 339 340 340 338
308 307 308 307 309 311 312 315 315 315 314 314 314 314 315 315 315 314 314 316 317 337 339 339 338 336 339 339 338 337 337 337
303 303 304 308 304 306 312 314 313 314 313 314 314 315 315 316 316 315 318 318 316 327 337 339 338 336 339 339 339 337 336 336
301 304 305 305 298 308 312 311 311 312 313 315 314 315 317 316 315 315 315 316 317 331 332 336 336 335 339 340 339 337 336 337
298 305 304 304 300 307 311 310 310 310 311 313 314 314 314 315 315 315 317 316 319 332 333 333 333 337 337 336 337 332 335 337
296 302 304 302 301 305 308 309 309 310 311 312 313 314 316 315 316 316 317 316 323 333 333 335 337 336 334 331 329 330 332 335
299 303 301 300 301 303 307 306 306 307 309 310 311 314 316 315 315 322 325 326 329 334 335 338 337 334 329 326 327 328 329 332
295 298 299 300 299 304 306 306 307 308 309 308 308 311 314 313 321 324 326 329 333 334 335 336 334 331 330 328 326 327 328 329
291 296 297 295 292 296 301 303 305 306 308 309 308 310 312 314 321 324 328 329 333 334 335 335 334 331 328 327 327 326 325 325
292 290 286 294 285 293 298 300 302 303 305 304 307 311 311 312 320 324 326 328 333 335 334 334 332 329 327 324 322 323 324 325

GFSFLT1_sfc_thetae_045.txt.gz
Theta_e
304 299 293 295 305 311 316 319 317 316 317 316 318 327 326 329 336 333 336 342 343 352 352 351 351 350 349 347 346 344 342 342
299 298 303 302 307 311 312 317 319 317 312 316 325 327 328 337 335 332 335 339 345 352 352 352 352 351 349 348 347 345 343 343
296 299 304 309 310 310 311 315 316 316 312 313 323 331 337 336 335 330 333 335 340 352 352 352 352 351 349 349 348 347 346 344
294 298 305 307 309 309 314 317 316 315 312 313 321 332 336 336 333 331 331 332 335 350 351 351 352 351 349 349 348 347 347 347
297 300 303 306 309 308 309 312 314 315 311 313 319 325 337 336 334 331 330 330 332 342 348 352 351 350 350 349 348 348 348 347
297 299 300 307 308 308 311 312 317 318 310 308 316 322 334 334 333 331 330 327 329 337 341 343 344 351 350 350 349 348 348 348
298 300 302 305 304 310 315 313 314 315 315 318 321 321 320 319 321 327 334 329 327 333 336 339 340 344 350 350 350 349 348 348
305 306 304 309 308 309 310 310 311 313 317 320 320 319 318 317 319 321 329 332 332 334 332 335 338 337 343 342 342 342 342 341
309 311 311 309 309 312 309 306 311 312 315 317 317 317 317 317 317 318 325 331 336 335 334 332 334 335 339 341 339 340 339 338
312 314 315 313 314 311 312 310 316 316 318 317 316 315 314 314 316 313 312 322 335 337 335 333 333 333 335 337 337 337 338 337
315 316 313 313 311 311 311 316 317 318 318 315 315 315 314 315 315 314 311 314 329 336 336 335 333 332 334 336 336 335 337 338
307 307 308 307 307 308 310 315 314 313 312 313 312 313 312 312 313 314 315 313 320 335 336 336 335 333 334 335 336 335 337 338
300 300 301 306 302 304 310 312 311 312 312 312 313 313 312 314 313 314 315 315 313 332 335 335 335 334 334 335 336 335 336 336
300 302 302 303 296 305 310 310 309 310 310 311 312 312 314 314 313 315 313 314 315 328 334 335 335 335 334 336 336 335 334 335
296 303 303 302 299 305 310 309 307 308 309 311 312 312 312 314 314 314 314 314 313 317 327 334 334 332 333 334 336 335 334 334
294 300 302 300 299 303 306 307 306 307 308 309 310 312 314 315 315 314 313 314 313 318 326 328 329 330 331 332 331 333 333 335
296 300 300 299 299 302 305 304 304 306 307 307 307 310 312 313 314 313 313 315 315 323 328 332 332 330 327 328 326 326 331 335
293 297 295 295 296 299 301 303 305 305 306 307 308 308 311 312 312 315 316 321 321 327 331 331 332 327 326 325 324 326 327 332
289 294 295 293 291 294 298 299 302 304 304 305 305 306 308 309 311 315 320 324 327 329 331 332 330 328 325 325 324 323 323 325
291 288 284 291 283 291 295 296 299 301 302 301 303 307 307 308 309 317 321 327 330 331 332 332 330 328 327 322 321 321 323 324

GFSFLT1_sfc_thetae_048.txt.gz
Theta_e
303 295 291 292 302 306 311 315 316 314 315 316 315 324 323 327 335 333 338 344 344 353 352 352 352 351 350 348 347 346 344 343
298 297 299 299 304 307 309 312 317 317 311 315 324 325 327 335 334 333 336 342 346 352 351 352 352 351 350 349 347 346 345 344
294 298 301 305 308 308 307 310 315 315 311 312 323 329 333 334 333 332 334 338 342 352 352 352 353 351 350 349 348 347 347 345
293 297 302 305 307 307 308 311 316 314 311 314 320 328 333 334 330 331 333 335 338 352 352 351 352 352 351 349 348 347 347 346
296 298 300 304 308 306 307 309 312 316 310 313 317 326 334 333 331 328 330 331 332 344 348 352 352 351 350 349 348 348 347 346
298 298 299 305 306 306 308 310 316 317 309 307 316 324 334 333 331 328 326 328 328 336 342 344 346 352 351 350 349 348 348 348
297 299 301 304 305 309 312 311 313 314 314 316 319 322 327 325 325 330 332 325 325 329 337 340 342 345 351 350 350 349 349 348
303 306 303 307 305 306 307 307 309 312 316 318 319 317 318 322 324 324 328 331 325 327 333 335 338 338 343 343 342 343 343 342
306 308 309 308 309 311 307 306 308 309 312 314 316 316 315 317 322 325 328 330 331 328 330 332 334 334 336 341 340 341 339 338
309 311 313 311 312 310 310 311 313 315 315 315 314 313 313 315 317 316 316 323 331 332 330 330 331 332 333 337 337 337 338 338
314 314 313 314 311 311 311 314 316 316 316 314 314 313 313 313 314 314 313 316 317 332 333 332 330 331 331 332 336 335 336 337
308 307 308 306 308 307 309 314 312 312 312 312 310 311 311 312 312 312 313 313 314 328 334 334 331 330 330 331 334 333 334 336
299 301 301 306 302 304 310 311 310 310 311 311 310 311 311 312 313 313 314 315 314 320 332 333 333 332 330 331 334 333 334 336
299 299 301 304 296 305 309 309 308 310 311 311 310 311 312 312 312 314 313 313 315 317 329 333 334 334 333 332 334 334 334 336
294 301 301 300 297 304 308 307 306 306 307 308 308 310 311 312 312 312 313 313 313 314 326 331 333 333 331 332 333 333 333 335
291 298 299 297 298 302 305 305 304 304 306 307 308 309 311 312 314 313 312 313 313 313 319 329 329 328 330 332 332 333 333 334
294 298 298 297 298 300 302 303 304 305 307 308 309 310 311 312 312 312 313 312 312 313 320 328 328 327 326 329 331 330 332 335
291 296 293 293 292 294 297 299 302 304 305 305 306 306 309 311 310 310 311 313 315 314 324 327 329 326 328 326 327 329 332 335
288 293 293 291 290 293 297 298 299 301 302 304 305 305 307 308 307 308 310 313 318 321 326 329 328 326 324 325 325 325 326 328
290 288 283 290 283 290 294 295 297 298 299 301 301 304 306 305 306 307 309 319 325 327 329 330 328 326 327 324 323 323 324 327

GFSFLT1_sfc_thetae_051.txt.gz
Theta_e
309 301 296 298 305 306 313 318 318 320 320 320 321 327 329 335 340 340 346 348 350 355 354 354 353 352 351 350 349 349 347 346
304 300 302 303 309 314 313 316 319 321 317 321 328 330 333 339 339 340 343 346 349 354 354 354 353 352 351 350 349 349 348 347
301 300 305 310 310 312 311 314 318 321 317 318 327 334 338 340 339 338 342 345 345 354 353 354 354 353 351 350 349 348 348 347
295 299 305 309 313 313 312 314 317 319 316 320 327 334 338 340 341 341 341 347 345 353 353 353 353 353 352 350 349 349 348 347
300 299 301 306 312 310 312 314 316 320 315 320 324 334 340 340 341 342 342 344 345 349 351 352 352 352 351 350 349 348 347 347
300 299 301 310 311 313 314 314 320 321 315 317 324 336 340 339 338 337 339 340 341 346 347 347 347 353 352 350 349 348 348 348
299 300 302 310 309 315 316 313 316 319 320 322 326 338 338 337 337 338 336 337 338 337 345 346 346 347 352 352 351 349 349 348
305 306 306 308 311 313 312 313 314 316 321 324 324 326 329 333 334 336 338 339 336 337 340 344 342 346 348 348 347 346 344 345
307 308 309 308 310 314 311 310 315 315 319 323 323 324 324 325 330 334 338 340 340 338 339 341 340 341 343 347 347 348 347 350
312 311 310 308 312 310 313 313 318 320 322 322 321 322 323 324 326 328 332 336 342 343 339 341 341 339 341 341 345 344 346 348
313 313 312 313 311 312 314 318 321 322 321 320 321 322 325 325 325 327 328 331 337 341 344 344 343 340 341 341 341 343 343 346
310 313 314 312 313 315 315 319 318 318 318 319 319 320 321 324 325 327 330 332 335 333 346 344 343 344 342 342 341 341 341 343
308 309 309 311 307 308 314 316 314 315 317 318 319 320 320 323 327 329 331 334 336 335 337 346 346 344 342 341 340 340 341 343
303 303 307 307 301 310 314 313 312 314 316 316 319 320 321 324 327 330 331 334 336 328 329 343 346 344 342 340 340 340 341 342
297 304 303 302 301 308 312 311 312 314 315 316 317 319 323 323 324 329 332 334 332 333 329 336 344 343 343 343 340 341 342 342
296 301 302 300 301 307 310 310 311 312 314 314 315 317 321 322 324 328 333 335 334 332 332 335 339 342 341 341 341 342 342 342
297 301 300 300 302 304 307 308 308 310 312 314 316 320 320 321 325 328 333 333 336 331 333 335 337 337 338 338 339 341 342 344
297 299 300 300 300 304 305 306 309 310 311 312 315 316 319 320 324 328 329 332 334 332 332 336 338 341 341 340 338 341 343 344
293 296 299 297 296 299 303 305 307 308 309 310 311 312 316 317 322 325 327 330 331 333 335 337 340 340 340 340 340 339 341 341
293 292 289 297 288 298 301 302 304 306 307 309 309 311 313 316 319 322 324 325 327 335 338 338 341 340 341 338 337 339 340 342

GFSFLT1_sfc_thetae_057.txt.gz
Theta_e
310 308 304 307 312 313 318 322 322 323 327 327 326 333 332 339 340 342 348 352 351 356 356 358 357 356 356 354 354 354 354 354
307 304 309 310 313 315 319 321 326 326 322 327 334 334 336 340 340 342 346 349 355 355 356 357 357 356 355 354 353 353 353 352
305 305 309 313 315 318 316 321 324 326 323 325 332 338 338 338 338 340 342 348 355 355 356 356 356 355 354 353 352 351 352 351
302 305 310 313 315 315 315 321 323 323 325 328 336 337 337 336 337 339 340 347 356 355 355 355 355 355 353 352 351 351 351 351
304 306 308 312 316 313 315 319 321 326 322 329 333 337 337 336 338 338 341 345 354 356 353 355 355 354 353 352 351 351 350 349
305 303 305 313 314 315 316 318 326 327 321 324 332 337 338 336 337 337 340 343 345 356 349 348 349 355 353 352 352 351 350 350
305 305 305 310 309 316 319 318 322 326 327 329 335 338 335 333 335 336 338 342 346 348 350 347 345 348 354 353 352 351 350 350
313 312 310 311 311 312 313 316 319 323 326 329 334 334 331 331 332 334 335 339 343 347 350 350 344 348 351 346 347 346 344 344
313 315 315 312 312 315 312 313 319 320 324 326 329 332 331 332 332 333 336 338 341 355 355 351 348 345 346 349 347 348 349 350
315 316 315 311 313 312 313 314 322 325 327 328 327 328 329 330 332 334 336 339 342 350 359 360 350 347 348 346 348 349 349 355
316 316 317 316 313 314 314 317 319 323 325 326 327 328 331 332 333 334 333 335 337 343 361 362 360 349 351 352 347 349 350 356
313 313 315 313 314 315 317 320 319 318 320 323 325 327 330 331 332 333 335 336 338 343 364 359 360 363 358 359 350 349 348 352
309 310 310 314 309 311 318 320 319 319 320 322 325 328 328 330 332 334 334 338 340 344 353 363 360 359 358 352 351 348 347 360
305 308 310 310 303 312 317 318 318 319 321 322 325 327 328 330 332 335 336 338 341 337 338 351 359 355 352 348 349 348 348 350
301 307 307 307 305 312 315 316 317 319 320 321 323 325 330 330 331 334 338 340 339 344 339 345 358 350 352 357 350 348 348 347
297 304 306 304 305 311 314 314 315 317 320 321 322 323 328 329 332 334 336 347 349 346 353 357 349 354 344 344 347 348 347 347
299 304 303 303 304 307 312 313 314 316 319 321 322 325 327 329 331 333 340 345 347 346 358 350 342 338 339 342 346 347 348 353
297 301 302 303 302 308 310 311 313 315 317 318 321 323 326 328 331 335 338 344 346 351 354 354 345 347 345 347 345 348 348 353
293 298 301 301 300 303 309 312 313 315 317 319 320 321 324 325 330 332 336 340 342 348 351 354 354 349 350 351 352 347 349 350
293 293 291 301 292 301 305 307 311 312 315 317 319 321 323 323 327 331 330 333 341 345 350 351 358 348 356 346 344 345 348 350

GFSFLT1_sfc_thetae_060.txt.gz
Theta_e
307 304 301 303 311 312 315 318 322 321 325 325 326 332 333 337 339 355 351 347 353 359 359 359 358 357 356 356 357 358 359 359
304 302 306 308 312 314 314 316 323 323 321 327 335 334 336 338 339 347 348 346 355 357 358 358 358 356 355 355 355 356 357 357
302 303 308 311 314 315 313 318 319 323 320 324 332 338 338 338 339 342 345 346 354 356 358 358 358 357 356 355 353 354 355 354
299 303 308 311 314 314 314 317 320 322 322 325 334 336 335 336 338 339 344 349 355 355 356 357 357 356 355 354 353 353 353 353
302 303 307 310 315 312 312 313 315 323 320 327 330 335 335 335 338 339 345 355 355 353 355 356 355 354 353 352 352 351 351 351
305 303 303 311 312 314 312 312 320 324 319 321 331 337 335 333 335 337 341 355 356 354 349 350 352 355 354 352 351 351 350 350
305 305 307 312 310 314 316 313 317 322 325 330 334 336 332 331 331 333 337 345 353 353 350 345 344 350 354 353 353 352 351 350
311 312 310 312 312 312 312 311 313 318 326 329 332 333 332 329 329 331 334 339 343 352 348 345 342 346 350 348 349 348 346 346
312 314 314 313 313 314 311 309 313 315 322 326 328 333 331 330 331 332 335 336 342 352 351 348 345 347 350 346 345 345 344 343
314 315 314 313 316 313 313 313 317 319 324 326 327 331 330 329 330 334 334 335 342 352 354 353 350 347 350 349 347 345 344 345
313 315 315 316 313 314 314 317 318 319 320 326 328 329 332 334 335 334 338 335 340 355 356 360 362 359 352 350 349 348 348 346
308 309 312 311 313 314 316 319 319 319 319 320 326 328 331 334 337 351 348 348 346 355 359 361 360 362 363 363 352 353 350 350
305 307 307 311 308 310 317 319 318 319 319 320 321 328 328 331 339 344 345 360 351 357 363 361 359 362 359 356 355 352 355 359
303 305 306 306 300 310 315 316 316 318 319 320 321 323 327 331 340 344 345 345 352 340 360 363 362 360 358 356 354 353 353 357
296 304 305 304 301 309 313 313 314 317 319 320 322 325 328 331 335 343 348 348 349 350 349 355 359 355 355 355 354 355 356 352
293 299 301 301 302 307 311 312 313 314 316 320 321 323 328 332 333 341 346 350 351 354 355 361 353 360 354 351 351 354 354 352
297 300 298 298 301 305 309 310 310 315 315 317 320 326 327 330 332 335 344 347 350 350 355 354 354 347 343 342 346 351 352 354
296 299 298 297 297 302 307 309 310 313 316 317 319 322 327 330 336 340 345 346 349 349 351 353 352 350 349 351 347 349 352 353
292 296 298 296 294 298 304 308 311 314 316 317 319 321 323 327 333 339 339 344 343 347 349 353 350 349 349 353 355 353 352 353
294 292 287 295 286 296 301 304 308 311 314 316 317 320 324 327 332 339 337 338 340 344 345 347 350 343 345 343 342 348 352 351

GFSFLT1_sfc_thetae_063.txt.gz
Theta_e
299 295 294 295 303 305 310 313 315 316 320 320 323 327 326 341 342 342 345 347 352 358 358 358 357 357 358 360 361 361 361 361
296 295 300 302 306 308 309 311 319 319 316 322 331 328 334 348 343 340 342 346 357 358 358 358 357 356 356 358 359 360 360 359
294 297 303 307 309 309 307 308 315 318 315 320 330 333 345 347 346 340 338 346 354 358 358 358 357 356 355 355 357 358 359 358
292 298 303 306 308 308 306 308 313 314 316 319 330 330 335 343 342 342 338 348 350 357 357 356 357 355 354 354 354 355 357 356
297 298 301 306 307 305 306 306 308 314 313 322 326 330 332 337 339 341 345 347 346 351 354 357 356 355 354 353 353 352 353 353
302 300 301 309 309 307 306 308 314 316 310 317 325 330 331 331 332 341 347 347 346 345 349 350 351 355 354 353 352 352 352 352
302 303 304 309 306 312 312 310 312 313 319 329 331 328 325 327 329 341 348 346 346 345 345 345 346 351 353 352 352 352 351 351
309 310 308 310 310 311 309 308 309 311 324 328 330 328 326 324 325 334 344 347 347 345 343 340 343 343 345 346 346 346 345 343
309 311 312 311 311 314 310 305 308 308 313 323 325 327 326 324 324 328 342 347 347 345 342 338 338 340 344 343 343 344 342 340
309 312 312 310 313 311 312 310 315 315 315 317 322 320 326 326 325 325 333 339 346 344 340 337 338 341 342 340 340 340 341 339
305 306 308 311 310 311 312 316 318 318 317 315 317 321 323 325 327 327 330 337 342 344 342 340 338 342 342 341 340 339 339 339
302 302 304 303 305 310 312 317 317 317 315 316 316 321 323 323 324 325 330 331 336 334 344 345 345 342 342 343 343 341 341 340
299 301 300 304 301 302 310 314 315 316 317 317 316 319 321 322 326 327 327 332 330 333 348 348 345 344 346 347 346 343 343 342
295 300 302 300 294 303 307 310 311 314 316 317 317 317 319 324 325 328 328 331 341 350 350 348 346 347 345 346 343 342 343 345
292 298 298 297 296 302 306 307 309 310 314 316 317 317 317 321 324 329 328 329 336 350 350 349 349 348 348 347 346 345 342 342
290 293 294 292 294 299 303 305 305 308 310 314 316 316 318 321 321 328 329 330 332 335 349 350 346 344 341 340 340 339 342 343
293 297 294 293 293 296 299 300 302 306 308 310 312 316 318 319 322 323 332 331 330 333 338 334 336 336 335 334 333 338 340 343
293 296 294 293 292 296 298 298 300 301 305 310 312 314 316 318 319 323 331 330 329 330 333 334 337 335 333 332 333 335 339 341
290 294 295 292 290 293 297 298 300 302 303 308 312 313 315 317 318 321 331 332 333 333 334 332 336 337 335 336 338 339 338 339
292 288 283 291 281 289 293 295 298 300 301 304 308 314 314 315 317 327 330 331 332 334 333 335 336 336 334 333 331 333 338 342

GFSFLT1_sfc_thetae_069.txt.gz
Theta_e
298 291 290 292 299 299 304 306 306 304 309 314 320 327 329 332 334 336 341 346 349 359 360 362 362 360 359 359 359 359 359 359
295 293 297 298 301 301 303 306 305 305 305 319 328 331 333 334 335 338 342 344 352 357 359 360 361 360 359 359 359 359 359 359
292 295 299 302 303 302 302 302 304 305 305 309 325 336 336 332 336 335 341 342 350 356 357 359 360 360 359 359 358 359 359 359
292 295 301 303 305 302 301 303 307 304 305 311 330 334 334 333 331 335 338 341 348 355 356 357 358 359 358 358 358 358 359 359
295 297 300 304 307 303 303 303 307 307 304 315 331 335 332 330 329 333 336 340 346 349 353 356 356 357 357 357 357 357 357 357
298 299 299 307 308 305 306 309 312 311 305 307 322 336 331 329 328 331 335 340 343 346 348 347 348 355 357 357 357 357 357 357
299 300 301 308 306 309 313 309 312 311 312 319 333 334 331 331 333 335 337 338 342 344 345 344 344 349 354 355 356 356 356 356
307 307 305 309 307 309 309 310 310 311 315 319 327 330 329 325 325 330 333 335 341 342 343 342 345 343 344 344 346 347 347 347
306 306 307 306 306 310 308 306 309 309 311 313 316 320 325 328 328 329 333 336 338 340 341 341 340 342 343 342 340 341 339 339
300 303 304 303 306 305 307 308 313 313 314 313 314 315 320 323 323 331 335 336 336 337 339 338 337 340 341 340 340 338 338 336
298 298 298 300 299 300 301 306 309 310 312 313 313 315 318 318 319 325 335 337 338 335 335 335 333 336 337 336 337 337 336 336
296 296 297 297 299 301 303 307 307 307 307 310 312 315 313 317 320 322 332 339 341 337 334 331 330 331 333 334 334 333 335 336
294 296 295 299 294 296 303 305 304 306 307 309 312 314 313 315 318 324 324 338 342 340 338 334 331 332 331 332 332 332 333 334
289 293 295 296 290 298 302 302 303 303 305 307 307 312 313 314 317 321 323 330 341 343 339 335 333 334 335 336 335 334 334 335
287 293 293 292 288 296 299 299 299 300 301 303 302 305 311 314 317 317 322 326 332 340 338 336 334 335 336 337 337 337 336 336
285 290 292 290 291 295 298 298 298 298 299 301 302 303 306 309 314 317 320 323 327 332 338 338 338 338 338 339 339 338 338 338
289 292 290 289 290 294 296 295 295 297 298 299 300 304 305 306 310 314 318 320 323 327 330 339 338 336 337 337 339 337 338 339
289 294 292 290 290 294 295 294 295 296 297 298 299 300 303 305 306 308 311 320 321 326 332 335 337 337 335 338 333 338 338 338
287 291 292 289 287 289 292 294 296 295 296 297 297 298 300 302 302 303 307 311 320 324 332 338 339 333 328 330 331 330 329 331
289 286 280 289 279 286 289 290 292 294 293 295 296 297 299 300 301 302 304 309 316 321 329 338 340 334 331 332 332 331 330 330

GFSFLT1_sfc_thetae_075.txt.gz
Theta_e
307 302 295 296 302 306 308 310 309 310 312 311 314 326 324 337 338 337 344 355 361 361 360 361 361 359 358 358 358 359 359 359
302 298 300 301 305 307 307 310 310 312 310 315 325 330 338 339 336 336 341 351 359 361 360 361 361 360 359 359 359 359 358 358
300 298 302 305 307 309 307 308 310 313 311 314 324 338 340 338 335 334 340 347 357 360 360 361 361 360 359 359 358 358 359 358
295 297 303 306 308 307 308 311 313 314 312 315 325 336 337 337 335 336 341 348 353 360 360 360 360 359 358 358 357 357 358 357
299 298 300 304 310 308 309 311 313 316 311 318 322 335 336 336 337 337 342 346 353 356 360 360 359 358 358 357 357 357 356 356
301 299 300 308 311 313 312 312 318 318 312 312 321 336 336 335 336 337 340 342 350 354 354 356 357 359 358 358 357 357 357 357
301 301 303 311 309 312 316 314 315 316 316 317 321 336 334 334 334 335 337 341 346 349 352 354 353 356 358 358 358 357 358 357
308 308 307 309 309 308 309 311 311 314 317 316 317 328 329 331 330 332 333 338 344 348 351 352 350 354 355 354 355 356 356 357
308 309 307 307 305 309 308 306 311 310 310 313 315 319 322 328 332 330 334 337 341 348 349 349 347 349 351 351 352 354 356 357
305 303 301 301 302 302 305 307 310 309 312 312 313 315 319 322 328 333 333 336 340 345 347 348 346 346 347 346 349 349 350 356
301 301 301 302 300 301 304 308 308 309 311 311 312 315 320 327 326 327 335 336 339 344 346 348 348 345 345 347 345 345 347 350
300 300 301 299 301 301 304 307 306 307 309 310 312 314 317 323 328 328 329 333 342 342 341 346 346 347 346 346 344 343 343 344
297 299 298 300 297 298 302 304 304 308 311 309 309 311 312 316 322 326 325 330 337 344 344 347 343 346 345 342 341 341 341 344
295 297 298 298 293 298 302 302 302 303 304 306 308 310 312 313 317 323 321 326 331 335 344 344 341 343 340 340 340 340 341 341
292 298 297 296 293 299 302 301 301 303 303 305 306 310 313 313 315 318 322 320 326 333 341 346 342 340 340 342 340 340 340 339
290 295 296 295 295 298 300 300 300 301 302 303 305 308 311 312 314 316 319 323 319 329 336 348 346 343 339 338 339 339 338 339
292 296 294 294 294 296 299 299 299 300 302 304 305 309 309 310 312 314 318 320 322 321 328 340 343 342 340 338 338 338 340 341
292 295 294 293 293 297 299 300 301 300 301 303 304 304 305 309 313 315 317 322 323 325 326 332 340 343 344 344 343 342 343 345
289 293 294 293 291 293 297 299 300 301 303 303 301 302 305 309 313 315 315 317 320 322 324 329 335 339 346 346 345 343 343 344
291 289 284 292 283 291 294 296 297 299 301 302 301 304 308 309 310 311 313 315 317 321 323 322 327 332 341 336 337 342 345 346

GFSFLT1_sfc_thetae_078.txt.gz
Theta_e
312 309 305 305 307 309 311 313 313 314 319 316 316 326 332 338 343 340 347 355 357 360 359 361 361 361 361 362 362 363 363 362
302 304 310 309 311 311 311 313 313 315 315 319 326 329 339 345 344 339 345 352 360 359 359 360 361 360 360 361 362 362 362 362
301 301 306 311 312 311 310 311 312 316 315 317 326 335 343 344 344 338 342 349 362 359 359 361 361 360 359 359 359 360 361 361
301 302 304 308 311 313 313 313 314 315 317 319 327 333 339 343 343 340 340 348 359 360 359 360 360 360 359 358 358 358 358 358
305 304 304 306 312 310 314 314 314 319 315 321 323 332 340 343 341 339 341 346 356 359 361 360 360 359 358 358 358 358 357 357
306 304 305 310 311 312 313 314 320 321 314 316 322 327 334 342 339 337 341 344 351 354 355 357 358 359 358 358 358 357 358 358
305 305 307 312 309 314 318 316 318 319 320 322 324 324 327 334 337 336 338 343 348 348 350 352 351 356 358 358 358 358 358 358
310 311 310 312 311 313 312 313 315 319 322 322 322 322 323 327 335 335 336 339 344 347 348 349 345 353 357 355 356 356 355 356
309 312 314 312 312 313 311 310 314 317 317 318 320 321 321 325 329 337 336 338 343 350 352 351 347 349 351 350 351 352 355 357
309 312 311 309 313 310 311 312 314 319 318 317 318 318 319 322 328 329 337 337 340 347 353 355 349 348 348 347 348 349 352 358
307 307 307 309 308 308 309 313 310 314 315 315 316 317 320 323 327 329 331 338 341 345 351 354 353 348 348 347 346 348 350 355
305 305 306 304 305 307 308 309 308 314 317 317 315 316 317 321 326 332 332 333 337 344 348 351 351 354 352 349 347 347 345 347
303 304 303 305 301 302 308 307 307 307 310 315 316 321 317 317 320 323 327 331 332 344 349 350 350 351 351 346 345 344 342 349
301 300 302 301 297 304 307 306 305 305 305 309 310 316 316 316 318 322 324 331 332 327 337 350 350 349 346 345 344 344 343 343
296 301 300 300 298 304 306 306 305 306 305 306 309 312 316 315 317 319 323 329 324 336 332 341 349 349 351 353 346 343 343 341
294 299 299 298 298 303 305 305 305 306 306 305 307 310 313 314 315 318 322 326 329 329 332 339 345 352 347 346 345 345 342 343
296 299 297 297 298 301 304 304 304 305 305 307 307 310 312 313 315 317 326 326 328 327 331 330 331 335 340 343 344 343 346 348
297 298 297 297 296 300 302 303 304 305 306 306 307 309 309 311 315 319 320 323 326 327 329 329 332 341 335 341 341 347 348 350
293 296 298 296 295 298 301 303 304 305 306 307 307 306 307 310 315 318 318 320 322 324 327 329 331 330 337 341 343 343 344 347
293 293 289 296 287 295 299 300 301 303 304 306 306 306 309 312 313 315 317 319 321 323 325 325 329 330 331 326 333 334 342 347

GFSFLT1_sfc_thetae_084.txt.gz
Theta_e
308 308 306 309 318 318 317 316 315 314 318 317 318 325 329 337 343 347 351 353 357 362 364 365 365 365 363 362 362 362 362 362
305 301 311 314 317 320 319 315 316 315 313 321 327 326 331 340 343 343 351 349 358 361 363 364 364 364 364 363 363 362 362 362
304 304 307 316 318 320 318 316 314 315 312 318 326 328 330 338 343 343 346 350 356 359 362 363 364 364 364 364 363 363 363 362
299 304 308 311 315 319 318 319 317 315 314 318 328 326 327 330 344 344 345 352 357 359 360 361 362 362 362 362 362 362 362 362
303 303 306 310 314 313 312 315 317 319 315 320 323 326 328 330 344 344 345 355 356 354 358 360 361 360 360 360 360 361 361 361
305 304 304 311 313 313 311 312 320 322 315 317 324 326 326 328 338 340 341 357 357 352 351 354 357 360 359 359 359 359 359 359
303 304 306 312 311 315 316 313 314 317 320 324 327 326 324 325 329 340 338 355 355 347 350 351 351 356 358 359 359 359 358 358
308 309 309 312 312 313 313 312 312 314 319 325 327 324 322 321 323 332 338 342 352 346 349 350 346 356 354 354 354 353 353 355
309 311 312 310 310 314 312 310 313 313 317 321 324 325 322 320 321 330 339 341 348 350 352 349 346 356 352 351 351 351 352 353
309 311 310 308 312 310 313 314 318 318 320 319 319 322 321 320 320 325 332 341 345 354 355 353 348 352 353 347 349 350 351 356
308 309 308 309 308 309 311 316 319 319 319 316 316 318 324 327 324 326 335 338 345 351 356 361 363 362 360 347 348 349 352 353
307 307 308 305 306 308 311 316 315 317 317 316 315 316 324 325 324 332 338 334 341 353 355 358 360 367 363 362 360 354 351 353
304 305 305 307 302 303 309 311 310 311 315 316 316 316 320 323 327 329 334 335 338 354 355 353 356 363 360 358 353 355 353 360
302 304 305 304 297 305 309 309 308 309 312 313 314 316 317 323 331 334 333 336 336 334 351 351 355 356 356 350 352 353 351 354
298 304 304 303 299 305 308 308 308 310 311 312 313 315 320 320 325 327 331 333 336 338 346 351 354 352 353 355 353 351 351 352
297 302 303 300 299 304 306 306 308 308 310 311 312 314 318 321 325 327 331 332 336 340 341 349 351 351 352 350 349 352 350 351
299 303 301 300 300 302 305 305 305 308 309 311 312 316 318 321 323 326 330 332 337 338 336 340 336 335 338 341 349 349 352 353
298 301 300 299 298 302 304 304 306 307 308 310 312 313 316 318 321 325 328 330 333 333 335 337 331 335 341 336 339 341 348 352
295 299 300 298 296 299 302 305 306 308 309 310 311 311 315 316 319 323 325 327 328 331 328 332 336 329 329 331 332 334 333 335
296 295 290 298 288 296 300 302 305 306 307 309 310 312 315 316 318 322 322 324 327 330 330 325 336 331 330 326 325 328 330 333

GFSFLT1_sfc_thetae_087.txt.gz
Theta_e
299 297 298 302 314 313 318 319 311 309 314 316 317 325 325 334 345 348 349 351 358 364 364 364 363 362 361 360 361 361 361 362
297 295 301 308 314 317 318 318 315 311 310 320 324 323 326 338 344 345 348 350 360 363 363 363 363 362 361 361 361 362 362 361
296 298 303 306 315 317 315 315 316 316 310 315 321 323 322 336 339 343 345 351 357 362 363 364 364 363 362 361 361 361 362 362
292 298 304 306 312 317 315 315 316 315 314 314 320 320 319 325 335 339 343 351 354 361 362 362 363 362 362 361 361 361 361 361
298 299 302 306 308 309 314 313 312 316 313 317 317 319 320 320 336 339 345 350 351 355 361 362 361 361 361 360 361 361 360 360
298 298 300 308 308 308 311 311 315 316 311 309 317 319 320 320 324 344 348 349 348 351 355 355 357 361 360 360 360 360 360 360
297 299 301 307 304 308 312 309 312 315 314 318 322 319 318 318 317 343 350 347 346 348 349 351 353 357 359 361 360 360 360 359
301 304 302 304 305 306 308 307 308 311 315 317 320 317 316 315 314 323 346 346 344 344 346 346 353 353 350 355 354 353 353 353
302 305 306 305 305 308 305 305 308 308 312 316 318 317 316 315 315 317 328 345 343 343 345 344 345 350 348 348 347 346 347 349
303 306 305 304 305 304 304 306 313 313 315 316 315 313 314 314 315 316 329 336 340 343 343 342 346 348 346 346 345 344 343 346
303 302 302 304 302 302 303 308 316 315 315 314 312 313 316 314 317 327 326 331 341 345 344 349 348 349 345 340 344 344 344 345
300 299 300 300 301 302 304 307 309 313 312 312 311 312 313 317 313 322 325 326 336 341 346 346 346 351 350 348 341 343 345 345
299 299 298 302 298 299 304 306 305 306 308 312 312 312 311 317 314 320 324 327 334 341 345 345 346 350 348 347 347 345 344 345
295 300 301 298 293 301 304 304 304 305 306 307 310 311 311 314 316 321 324 325 326 338 342 344 345 345 346 346 342 342 342 347
293 299 299 297 294 301 304 303 302 303 305 306 306 308 310 312 312 321 325 325 324 328 341 342 344 346 344 346 346 342 340 341
291 296 298 295 295 298 301 301 301 301 303 305 306 307 311 313 319 321 321 323 324 330 337 340 344 346 346 345 342 342 342 340
295 299 295 294 294 296 300 299 298 299 300 303 305 308 311 316 317 319 322 323 322 323 326 335 338 339 336 342 343 343 345 344
295 298 295 293 293 296 298 298 299 300 301 301 304 306 311 313 314 316 318 319 321 326 327 328 326 327 331 334 336 341 344 344
291 295 296 293 291 294 298 300 301 302 303 303 302 305 308 311 313 316 316 316 317 317 320 323 326 323 323 323 325 326 328 332
294 290 283 292 283 291 294 297 299 301 302 303 304 305 307 310 312 314 315 315 316 318 317 317 322 323 321 320 318 320 323 327

GFSFLT1_sfc_thetae_093.txt.gz
Theta_e
296 295 296 300 310 305 308 313 312 308 313 315 317 325 333 336 346 350 354 358 358 362 361 361 360 359 358 358 359 359 360 360
295 293 297 304 302 306 307 312 313 311 309 314 318 320 330 345 347 348 352 356 360 361 361 361 360 359 358 359 359 359 359 359
292 296 299 303 305 305 307 311 310 311 309 311 316 320 340 341 346 345 349 353 360 361 361 360 360 359 359 359 359 359 359 358
291 295 301 303 304 305 306 312 313 310 309 310 316 316 335 341 341 344 347 354 358 361 360 360 359 358 358 358 358 358 359 359
291 296 298 302 305 303 305 306 309 314 308 310 313 315 331 341 340 340 346 354 356 357 359 361 359 358 358 357 357 357 358 358
292 292 295 302 302 301 301 304 312 317 308 306 312 316 333 337 338 338 347 351 354 355 357 356 356 359 358 358 357 357 357 357
291 294 296 299 299 303 307 306 307 312 313 316 316 316 337 336 338 342 344 346 352 352 353 353 355 357 358 358 358 357 357 357
295 296 296 298 298 300 303 303 304 306 311 316 316 313 331 334 335 338 341 343 350 351 351 352 354 355 354 355 354 353 353 352
296 298 299 298 299 301 301 300 302 303 307 312 314 311 319 332 337 338 341 343 346 348 350 350 351 353 352 354 354 354 352 352
297 299 297 298 300 299 300 301 305 307 309 313 312 310 311 315 329 338 340 341 344 347 347 346 350 350 350 351 351 351 351 347
298 297 296 299 297 298 299 303 305 309 310 310 310 310 310 315 320 329 336 339 341 343 345 343 346 346 347 348 348 348 347 348
295 295 295 295 297 297 299 303 304 304 304 306 310 310 309 314 322 326 333 339 340 341 342 342 345 345 344 345 345 341 344 345
292 294 294 296 294 295 300 302 301 302 303 304 307 310 310 312 320 324 331 337 339 340 340 340 344 343 342 342 341 341 341 341
290 293 295 294 288 296 300 299 299 300 301 303 305 309 309 311 315 319 326 335 338 341 340 340 342 343 343 342 343 341 341 341
288 293 294 293 289 295 298 297 297 298 299 301 301 303 304 309 310 312 321 332 336 339 339 341 342 345 345 344 342 343 342 342
286 292 292 290 290 293 296 296 296 296 297 298 300 302 304 305 309 311 317 321 332 334 337 337 341 339 339 339 339 342 342 342
290 294 291 290 290 292 295 294 294 296 296 297 298 301 305 306 307 312 316 317 324 329 330 334 334 333 332 335 334 335 337 340
291 294 291 290 290 292 293 294 295 296 297 297 297 299 302 305 310 314 316 317 318 325 329 331 330 325 325 325 332 334 336 338
288 291 291 289 287 290 293 294 296 297 298 298 298 298 299 303 308 312 314 315 317 320 325 326 323 319 318 319 320 324 328 333
290 287 282 289 282 286 290 292 294 295 295 296 297 298 298 301 305 311 314 315 317 318 319 321 320 317 317 317 317 316 317 319

GFSFLT1_sfc_thetae_096.txt.gz
Theta_e
297 295 297 301 306 302 305 312 311 307 312 313 315 323 331 336 348 352 353 356 357 362 360 360 359 358 358 359 359 359 359 359
295 292 298 303 301 305 306 312 310 309 308 312 317 319 329 344 349 350 353 355 360 361 360 360 359 358 358 359 359 359 359 359
292 295 299 302 302 303 305 309 309 309 307 309 315 330 341 344 348 348 351 353 358 360 360 360 359 358 358 358 358 358 359 358
290 295 300 302 303 302 303 306 311 310 308 308 315 321 337 343 343 349 350 353 357 360 360 359 359 358 357 357 357 357 358 358
291 295 298 302 303 299 299 300 304 311 307 309 312 315 337 339 341 346 351 354 355 356 358 359 358 357 357 357 356 356 356 356
291 293 295 300 301 299 300 301 308 311 306 304 312 321 332 336 336 342 350 352 352 354 356 353 354 358 358 357 356 356 356 356
292 292 294 298 296 301 304 302 304 307 310 314 315 334 334 333 336 341 346 350 351 352 353 354 352 355 357 358 357 357 356 356
295 296 294 297 296 298 300 301 300 303 307 313 318 327 331 332 332 336 340 347 350 350 351 351 354 353 352 352 353 353 353 352
295 297 298 296 298 299 298 296 300 301 303 307 312 313 328 332 334 336 340 345 348 349 350 350 352 352 353 353 353 351 351 350
294 296 295 295 298 296 299 300 303 304 305 308 309 309 318 329 334 335 339 342 347 348 347 348 349 349 350 351 352 351 351 351
296 295 294 296 295 295 296 301 303 303 304 309 309 309 309 317 331 336 337 340 345 347 346 347 348 349 348 348 349 350 350 349
293 294 293 293 294 295 298 302 301 302 301 301 309 310 309 312 321 332 337 339 342 345 346 346 348 347 346 348 349 348 348 349
292 293 293 294 293 293 298 300 300 300 301 301 303 308 310 311 320 326 332 338 339 341 344 344 346 345 345 346 347 344 343 343
289 292 294 293 287 295 296 296 297 298 299 300 301 305 308 310 314 320 327 335 337 341 340 341 343 343 343 342 343 344 344 342
287 291 291 290 287 294 297 296 295 296 297 298 299 301 303 308 310 313 321 330 334 338 338 339 339 342 341 340 340 341 342 341
285 290 289 288 288 292 295 294 295 295 296 296 298 299 302 305 305 308 313 324 332 336 338 337 337 339 340 340 340 340 341 341
289 293 289 289 289 292 294 293 293 294 295 296 297 300 301 303 306 307 309 316 327 331 333 337 336 336 336 338 339 338 341 342
289 292 289 289 288 291 292 293 294 295 295 296 296 298 300 301 303 308 311 313 319 328 329 336 339 332 334 333 334 336 337 339
287 290 289 287 285 288 292 293 295 295 296 296 297 297 299 299 301 305 309 313 316 324 330 333 332 324 321 323 326 331 334 336
289 285 281 287 281 286 289 291 292 294 294 295 296 297 297 298 299 302 307 311 315 317 327 332 328 326 322 323 321 325 328 328

GFSFLT1_sfc_thetae_102.txt.gz
Theta_e
313 310 309 312 314 315 317 322 321 319 323 324 326 332 341 350 348 352 356 359 359 361 362 363 363 363 363 363 362 362 362 361
307 306 311 315 314 315 316 320 322 321 317 325 330 330 341 351 350 353 354 356 360 361 361 362 361 362 362 362 363 363 362 361
306 306 308 314 316 315 314 316 318 320 317 321 330 344 348 352 352 352 352 355 362 360 361 361 361 361 361 362 361 361 361 361
302 304 307 311 314 314 313 314 317 316 316 322 331 341 349 353 353 351 351 355 360 360 359 359 360 360 359 359 359 360 360 359
303 304 307 310 314 312 312 312 313 316 314 323 327 331 349 352 354 351 352 354 360 357 358 359 359 358 358 358 358 358 358 358
302 300 302 310 312 313 312 311 315 316 315 318 320 328 343 351 353 351 351 352 358 357 354 354 354 359 358 358 358 358 358 358
301 301 302 309 307 311 312 310 312 315 315 317 319 333 340 346 349 349 348 350 355 355 355 353 353 354 357 357 358 358 357 357
306 306 305 306 306 307 307 308 310 313 317 318 318 328 333 340 342 345 345 347 352 356 356 354 349 354 353 350 351 353 353 354
306 307 308 306 305 308 305 305 309 310 314 316 317 320 331 334 340 342 346 348 351 356 360 356 352 352 350 348 348 350 353 355
306 307 306 305 307 305 307 308 311 311 313 315 316 318 321 330 334 342 345 348 352 356 360 360 354 351 351 348 348 348 349 354
306 306 305 306 304 305 306 310 312 312 312 313 314 316 322 325 329 340 345 348 352 355 359 360 359 353 353 352 350 352 351 354
305 306 306 304 305 305 308 311 311 311 312 313 314 315 318 323 327 332 344 348 353 356 360 360 361 361 357 356 354 353 352 353
305 306 305 307 302 303 308 309 309 310 311 312 313 315 316 319 325 331 336 348 353 356 358 361 359 358 360 356 355 353 353 357
304 303 304 303 298 305 308 308 308 309 310 311 313 314 317 320 323 328 336 344 353 353 356 360 360 359 357 355 355 354 353 355
299 303 302 301 299 305 308 308 307 309 310 311 312 315 318 321 322 325 330 340 351 357 355 358 360 358 358 359 356 354 356 355
296 301 302 300 301 304 307 307 308 309 310 311 312 313 317 320 322 323 326 331 339 349 357 359 358 358 355 354 354 353 353 353
299 302 301 300 301 304 307 307 307 308 309 310 312 315 317 319 321 322 326 330 333 335 351 355 353 352 351 349 351 351 352 353
300 302 301 301 300 304 306 307 308 308 309 310 312 314 315 317 319 322 325 329 332 336 339 350 351 352 350 349 350 352 353 354
297 300 302 300 298 301 305 307 308 309 310 311 311 312 314 316 318 321 323 326 329 334 338 341 351 349 351 352 352 350 351 351
298 297 293 301 291 299 303 304 306 308 309 311 312 313 314 315 317 319 320 323 327 330 335 337 344 347 355 347 343 346 350 351

GFSFLT1_sfc_thetae_105.txt.gz
Theta_e
314 312 310 311 321 321 321 323 324 322 324 326 328 336 343 348 348 350 355 358 361 363 364 366 366 365 364 363 363 363 362 361
309 309 315 316 321 319 320 323 325 324 320 326 334 334 345 348 349 351 351 354 360 362 363 365 365 363 364 363 363 363 362 361
308 309 314 316 321 320 319 320 321 322 320 323 335 342 348 348 349 351 350 352 361 361 362 363 364 364 363 363 363 362 362 362
304 308 313 314 319 319 319 320 320 320 320 325 336 341 345 349 350 352 351 353 361 360 361 362 363 362 362 362 362 362 361 361
305 305 309 313 318 315 317 318 317 321 317 325 328 337 346 348 350 350 352 353 359 355 358 361 361 361 361 360 360 360 360 360
305 303 304 313 316 317 315 315 320 318 316 320 323 330 345 347 348 348 350 352 356 355 352 353 356 360 360 360 359 359 359 359
303 304 306 312 309 315 317 314 315 318 320 323 322 329 335 342 344 345 347 351 356 353 352 351 350 354 358 358 359 359 358 358
308 309 307 309 309 311 310 310 312 314 319 322 323 324 331 336 338 341 343 346 353 355 354 353 349 355 350 350 352 353 353 355
308 309 310 309 308 310 308 305 311 312 316 320 321 323 327 332 336 339 342 344 348 357 361 354 350 352 350 346 346 348 351 358
309 310 309 307 310 308 309 309 312 313 315 316 318 320 324 329 332 335 341 345 348 355 360 362 353 350 351 344 345 345 348 360
309 309 309 309 307 307 308 312 314 314 314 314 316 319 322 326 329 333 337 345 348 354 362 366 367 354 353 350 346 346 348 354
308 308 308 306 307 308 309 313 312 313 313 315 317 318 319 321 325 328 335 345 349 352 366 362 363 366 359 358 350 348 347 351
307 308 307 309 304 305 310 312 311 312 313 315 316 318 318 321 324 329 332 343 350 354 361 367 364 364 362 355 353 350 351 359
306 307 308 307 300 308 312 311 310 311 312 313 315 317 319 321 323 326 330 336 344 347 353 363 365 364 359 357 356 352 352 350
302 307 305 304 301 307 310 310 310 311 312 313 314 317 320 321 322 325 327 333 340 350 351 357 365 363 364 365 358 356 356 353
300 305 304 302 302 306 309 309 310 311 312 313 313 315 319 321 322 324 327 331 334 342 358 362 360 364 359 358 357 357 355 356
302 305 302 303 303 306 309 309 309 310 311 313 314 317 319 320 322 323 327 328 333 336 352 356 354 352 353 351 353 353 355 361
302 305 304 303 302 306 308 309 310 310 311 312 314 315 317 319 321 322 325 329 332 335 343 348 347 355 354 354 350 351 352 359
299 303 304 302 300 303 307 309 310 311 312 313 313 314 316 317 319 321 322 326 332 337 342 346 350 348 358 356 353 347 347 350
299 298 294 303 293 302 305 307 308 310 311 312 313 315 316 317 319 321 322 324 326 331 338 340 349 343 348 343 342 342 343 345

GFSFLT1_sfc_thetae_108.txt.gz
Theta_e
310 309 306 310 319 321 323 325 323 322 324 325 328 339 340 343 350 353 354 357 362 365 366 366 366 364 363 362 362 362 362 361
306 305 312 314 319 323 321 323 324 324 320 328 335 337 345 345 348 352 352 355 361 364 365 365 366 364 363 363 362 362 362 361
306 307 312 317 322 321 318 321 321 323 320 325 336 342 345 345 347 347 350 358 359 363 364 365 365 364 363 363 362 362 362 362
302 306 312 316 318 320 319 320 321 319 320 326 337 340 344 346 348 348 353 359 357 362 363 363 364 364 363 362 362 362 361 361
304 304 307 312 318 315 316 318 318 322 317 325 332 341 344 345 347 349 354 359 356 356 361 363 363 362 362 362 361 361 361 361
303 304 304 313 315 317 315 315 321 320 314 316 324 332 343 344 344 346 348 357 354 354 354 357 360 362 361 361 361 360 360 360
301 302 306 312 310 316 319 316 317 317 318 322 324 328 333 339 340 342 344 355 352 349 351 352 354 359 360 361 361 360 360 359
307 308 307 309 310 311 310 312 312 314 318 321 323 323 327 333 335 338 341 348 352 350 350 349 347 356 357 358 358 358 357 357
308 310 310 309 308 311 309 307 310 311 315 318 320 324 324 328 334 338 341 343 353 355 354 350 348 354 350 351 353 355 357 357
308 310 309 308 310 308 309 309 313 313 314 315 316 319 321 324 330 336 338 344 347 357 359 357 352 353 351 346 347 347 349 355
309 309 309 309 307 307 308 311 312 313 314 313 315 317 321 325 327 328 336 346 347 348 356 357 362 354 353 347 345 345 347 352
308 308 308 306 306 307 308 312 312 312 312 313 314 315 319 325 326 335 339 347 349 342 346 364 359 362 359 351 349 347 348 351
306 307 306 308 303 304 309 311 310 311 313 313 315 316 318 322 328 332 343 347 349 343 337 352 361 362 364 358 349 346 347 351
304 306 307 306 298 306 311 310 309 310 311 313 315 317 321 323 329 340 340 340 351 348 355 361 364 364 362 362 359 355 350 352
301 307 306 305 300 307 310 310 309 310 311 312 314 318 322 324 329 344 341 343 344 351 351 362 364 363 363 362 361 360 358 353
299 305 305 303 302 305 308 309 309 310 311 312 313 316 321 324 326 333 333 339 340 342 350 365 364 363 362 361 359 358 357 355
303 306 303 302 302 305 308 308 308 310 311 313 314 317 322 324 328 331 331 334 341 343 346 351 358 356 357 355 356 356 357 358
302 304 303 302 301 305 307 308 309 310 311 313 315 316 318 323 328 330 333 337 338 340 350 347 345 357 357 356 353 356 356 356
298 302 304 302 299 302 306 308 310 311 313 314 314 315 319 321 327 329 332 333 336 343 345 351 347 343 346 354 352 349 350 353
300 298 293 302 292 301 305 306 309 310 311 312 313 316 318 320 325 326 327 331 337 342 345 342 348 346 344 340 343 344 347 350

GFSFLT1_sfc_thetae_111.txt.gz
Theta_e
299 297 296 299 312 314 321 322 320 317 320 325 328 335 334 346 352 355 353 357 362 364 363 363 364 362 361 361 361 361 361 361
295 295 302 307 313 319 320 321 321 319 319 327 340 340 342 348 351 351 350 358 363 364 363 363 363 362 361 362 362 361 361 361
293 298 306 310 314 319 319 317 318 319 320 324 337 341 347 348 350 348 351 357 362 363 364 364 364 363 362 361 361 361 361 361
291 297 306 308 310 316 314 316 317 316 322 324 337 339 339 347 347 348 354 356 359 363 363 363 363 363 361 360 360 360 360 360
295 298 302 306 310 308 309 313 313 316 314 316 328 337 340 341 348 354 354 353 355 358 362 363 362 361 361 360 360 359 359 359
296 298 299 307 309 309 309 312 317 318 312 308 317 326 337 340 351 352 352 351 351 354 358 357 359 362 361 360 360 359 359 359
294 297 300 306 304 309 315 313 314 313 315 318 320 324 322 332 343 350 352 349 349 349 351 353 355 360 361 362 360 360 359 359
302 303 300 303 302 304 307 308 309 311 316 319 318 316 318 323 330 340 347 346 346 347 347 346 355 355 354 357 357 356 356 355
304 305 305 302 302 305 305 302 308 307 311 311 312 314 315 319 326 336 347 346 344 345 345 344 344 354 353 352 353 353 352 352
304 306 302 303 306 304 303 304 309 310 311 310 309 310 311 314 318 328 340 346 346 345 344 343 344 350 348 348 351 352 352 352
306 305 302 305 303 304 303 308 309 309 310 308 307 308 310 312 317 325 339 346 351 349 346 345 348 348 345 344 346 346 347 349
303 303 302 301 302 302 304 308 308 308 307 307 308 309 309 311 313 320 338 345 348 343 342 344 346 348 346 343 343 342 343 345
301 301 300 303 299 301 305 307 305 306 307 308 308 309 310 311 313 316 333 343 342 333 331 333 349 349 353 346 343 341 341 342
297 302 303 300 293 302 305 305 304 306 307 308 308 309 309 312 314 318 337 339 339 338 336 335 351 350 353 353 345 341 340 343
295 302 302 300 295 302 306 304 304 305 306 307 307 308 310 313 314 315 321 331 335 335 336 335 342 353 354 353 352 347 344 344
294 300 300 298 297 300 303 302 303 304 305 306 307 307 311 311 312 318 321 321 322 324 329 343 352 352 354 352 351 352 349 347
296 300 297 295 296 299 301 300 300 302 304 304 306 309 310 314 313 316 317 316 318 319 321 331 331 346 347 348 349 351 352 351
297 300 297 295 295 299 301 300 301 302 303 304 306 308 310 311 312 315 317 317 320 322 327 324 330 331 343 345 347 351 351 352
294 298 298 296 293 296 301 302 303 304 304 305 306 307 308 310 312 314 317 320 320 322 323 332 327 326 328 330 339 341 344 347
297 293 288 295 286 292 298 299 302 304 303 303 306 307 309 311 311 313 315 317 321 322 325 326 328 330 328 327 328 331 332 339

GFSFLT1_sfc_thetae_114.txt.gz
Theta_e
297 293 292 296 305 309 317 320 317 315 325 327 328 340 340 349 354 357 357 359 359 362 362 362 362 360 360 360 360 360 360 360
294 293 298 304 306 310 317 320 318 321 321 331 339 338 345 352 354 353 355 359 362 362 362 362 362 361 360 360 360 360 360 360
291 295 300 304 308 308 314 314 315 317 321 326 339 346 351 350 350 351 355 359 361 362 362 362 362 361 360 360 359 359 360 360
289 295 303 303 306 307 312 315 313 318 321 323 343 343 346 348 347 353 353 357 359 363 362 361 361 361 360 359 359 359 359 359
292 295 298 302 307 305 308 309 310 317 313 317 329 344 346 346 347 353 354 354 357 359 362 363 361 360 359 359 359 358 358 358
292 293 296 303 303 303 304 309 315 318 311 311 317 338 345 345 348 351 351 351 354 356 359 358 358 361 360 359 359 358 358 358
293 294 298 304 299 304 309 309 310 312 315 317 320 332 342 344 346 348 348 348 352 354 356 356 356 359 360 361 360 358 358 358
299 301 299 302 302 303 305 305 307 309 315 316 316 314 334 339 342 344 345 345 348 351 352 354 358 356 357 357 357 356 354 354
301 303 303 301 301 303 302 299 304 306 310 310 310 309 311 319 342 345 346 345 346 348 350 350 352 353 354 355 355 354 353 352
302 304 302 300 303 303 302 303 309 307 309 308 307 306 306 310 322 341 345 345 345 346 346 346 350 351 352 353 353 352 352 351
303 303 301 302 301 303 302 306 308 308 308 306 304 306 306 310 326 337 342 342 342 344 343 343 344 348 348 350 351 351 351 351
300 301 299 299 300 301 304 306 306 306 306 306 305 307 305 308 318 336 342 341 345 343 343 341 341 345 344 345 348 349 349 350
298 299 298 301 298 299 304 305 303 303 304 306 306 308 307 308 310 330 342 345 345 343 345 344 342 344 343 341 343 343 344 347
295 299 300 298 292 300 304 303 302 303 304 305 305 307 307 308 307 321 337 343 344 345 337 331 345 347 348 343 341 341 340 341
294 298 297 296 293 300 302 302 301 302 303 304 305 305 307 309 310 330 335 338 336 334 333 332 332 344 347 350 342 341 337 338
291 296 296 294 294 300 301 300 300 302 302 303 305 305 307 309 312 320 333 335 335 332 332 336 332 340 348 348 348 348 343 340
294 298 294 292 294 296 298 297 297 299 300 302 304 307 307 309 310 317 326 333 332 326 327 327 328 343 344 345 345 347 348 349
293 298 295 293 294 296 298 297 299 300 300 301 302 303 306 307 309 315 316 321 318 318 323 322 320 327 341 342 341 345 347 347
292 296 295 293 290 293 297 299 301 301 301 302 302 303 304 306 307 312 313 314 316 318 320 321 323 324 325 326 328 332 333 338
294 291 285 293 283 289 294 296 299 300 299 300 302 304 305 308 310 314 314 317 320 322 322 324 328 326 323 321 320 323 325 330

GFSFLT1_sfc_thetae_117.txt.gz
Theta_e
296 291 291 295 301 307 310 312 317 316 324 327 329 341 340 348 356 357 355 356 358 362 360 361 360 360 359 359 359 359 360 360
293 291 297 300 303 305 306 313 316 323 322 330 339 340 347 353 356 354 354 355 360 362 361 360 360 359 359 359 359 359 359 359
289 293 298 303 304 304 304 312 312 320 321 326 341 348 350 352 354 352 354 355 358 361 361 361 360 360 359 359 358 359 359 358
288 294 301 302 304 303 302 309 322 323 321 323 343 346 348 350 350 354 354 356 356 360 361 360 360 360 359 358 358 358 358 358
291 296 297 302 304 301 302 303 308 321 319 323 337 344 346 346 349 352 355 355 355 356 359 361 359 359 359 358 357 357 357 357
292 294 296 303 300 299 300 303 313 321 314 316 328 343 344 343 347 347 352 353 354 356 357 355 356 359 359 358 358 357 357 357
292 293 296 299 298 302 306 306 308 311 316 319 336 342 340 342 345 346 348 349 352 354 355 355 354 357 359 359 359 358 357 357
298 299 299 300 297 299 303 304 306 309 311 318 338 339 339 340 340 343 343 346 350 352 353 354 356 354 355 355 355 354 353 351
300 302 301 298 300 301 301 298 302 304 307 308 314 328 337 340 341 342 345 345 348 350 351 351 353 354 354 354 354 354 352 350
300 302 301 300 303 301 300 302 306 306 308 306 306 311 323 333 337 341 343 343 345 348 348 349 351 351 350 351 351 351 352 350
300 300 299 300 299 300 300 305 306 306 306 304 304 305 309 315 323 340 342 342 343 345 346 347 345 349 349 350 350 350 351 350
298 298 297 297 299 299 302 306 305 304 304 303 303 304 303 310 324 333 343 342 343 343 343 342 342 345 345 348 349 349 349 349
296 298 297 298 296 297 303 304 303 302 302 303 304 305 305 305 316 333 338 341 340 342 343 340 340 343 343 345 346 347 348 348
294 297 299 298 292 299 303 301 301 302 302 302 303 305 305 306 307 328 337 339 341 343 341 337 340 342 342 342 340 343 343 344
293 297 297 294 291 299 301 300 300 300 301 302 302 304 305 306 305 312 336 339 340 339 338 335 342 345 344 341 338 339 337 336
290 294 295 293 293 296 299 298 299 299 300 301 302 303 306 307 308 313 331 339 338 335 333 333 332 333 341 346 346 340 336 336
293 296 293 292 292 295 298 296 295 296 298 300 300 304 304 305 309 321 328 333 335 331 331 333 332 330 334 338 342 345 345 343
292 295 292 292 292 295 296 296 295 296 297 299 299 302 304 304 306 315 326 331 331 331 327 326 324 337 340 340 340 341 341 340
290 294 293 291 289 292 296 297 298 298 298 299 300 300 302 303 305 311 319 323 326 322 323 321 318 323 324 324 325 327 327 329
293 289 284 291 282 288 292 294 296 298 297 298 299 301 302 302 304 310 311 313 316 318 318 319 320 320 318 316 316 320 321 325

GFSFLT1_sfc_thetae_123.txt.gz
Theta_e
308 306 306 309 309 309 311 313 313 319 331 332 331 342 344 350 356 357 358 360 359 361 361 362 361 361 360 360 360 361 361 361
303 303 306 309 311 309 311 311 315 325 326 335 345 343 347 355 356 355 357 359 360 360 361 361 361 360 360 360 360 360 359 360
300 302 304 307 309 310 309 308 310 325 326 331 345 352 355 355 355 354 356 358 359 360 360 361 360 360 360 360 359 359 359 359
297 300 304 307 310 309 308 309 310 321 329 333 349 351 354 355 354 355 356 357 357 359 360 360 359 359 358 358 358 359 359 359
298 300 302 306 309 307 307 307 310 328 327 333 344 352 356 355 355 356 357 357 357 356 359 360 359 358 357 357 357 358 358 358
299 300 301 306 307 307 307 308 314 328 327 328 342 352 354 355 354 354 355 355 356 356 354 354 356 358 357 357 357 357 357 357
298 299 303 305 305 308 310 309 312 316 320 329 348 349 349 349 350 351 352 355 355 353 354 354 353 355 357 357 357 357 356 357
303 304 304 305 304 305 307 308 312 315 336 343 345 345 343 343 343 346 348 352 355 355 354 354 352 355 355 354 353 353 353 354
302 305 305 304 304 307 305 305 309 310 324 340 343 342 341 341 342 343 348 351 354 357 357 354 351 355 354 353 354 356 356 357
303 304 304 303 305 304 305 307 310 310 312 337 341 342 341 341 342 344 346 349 354 357 357 357 354 354 355 354 355 354 354 357
302 304 304 304 303 304 305 309 311 311 311 313 337 342 345 346 346 346 345 348 352 356 357 357 357 356 355 355 354 355 356 357
302 302 303 301 303 303 306 310 310 310 311 312 315 330 335 339 346 348 349 349 351 354 357 356 356 358 356 357 356 355 356 356
299 301 301 303 299 300 307 309 308 309 310 311 312 313 316 328 335 345 349 353 353 353 356 356 356 357 356 356 356 354 355 357
300 300 302 302 296 304 306 306 307 308 310 310 313 312 315 318 323 331 337 342 352 351 352 354 355 355 355 355 355 353 354 354
297 300 300 300 297 303 306 306 307 309 310 310 312 315 316 316 318 324 329 340 346 351 351 353 353 353 354 355 353 353 354 354
295 298 300 298 299 303 305 305 306 308 309 308 309 311 317 317 318 320 323 333 345 349 353 353 352 351 351 351 351 352 353 353
296 299 298 298 299 303 303 305 306 307 307 307 308 312 313 315 317 319 322 328 342 347 351 350 347 346 346 345 348 348 350 353
296 298 298 298 298 302 304 304 305 305 307 308 311 313 315 315 316 318 323 325 334 345 349 349 348 349 348 348 349 351 353 353
294 297 298 297 296 298 302 303 304 306 310 312 311 312 315 316 317 317 321 330 333 341 347 348 349 347 344 346 346 348 351 352
296 295 291 296 289 296 300 302 302 309 310 310 312 314 316 318 319 318 316 319 330 340 343 343 345 346 345 342 339 342 343 344